Time,TemperatureF,DewpointF,PressureIn,WindDirection,WindDirectionDegrees,WindSpeedMPH,WindSpeedGustMPH,Humidity,HourlyPrecipIn,Conditions,Clouds,dailyrainin,SoftwareType,DateUTC
2013-06-27 00:00:00,67.7,66.5,29.80,SW,227,0.0,0.0,96,0.00,,,0.00,Wunderground v.1.15,2013-06-27 04:00:00,
2013-06-27 01:23:00,68.0,66.8,29.83,South,183,0.0,0.0,96,0.00,,,0.00,Wunderground v.1.15,2013-06-27 05:23:00,
2013-06-27 01:29:00,68.0,66.8,29.82,South,183,0.0,0.0,96,0.00,,,0.00,Wunderground v.1.15,2013-06-27 05:29:00,
2013-06-27 01:34:00,68.0,66.8,29.82,South,183,0.0,0.0,96,0.00,,,0.00,Wunderground v.1.15,2013-06-27 05:34:00,
2013-06-27 01:38:00,68.0,66.8,29.83,South,183,0.0,0.0,96,0.00,,,0.00,Wunderground v.1.15,2013-06-27 05:38:00,
2013-06-27 01:43:00,68.0,66.8,29.83,South,183,0.0,0.0,96,0.00,,,0.00,Wunderground v.1.15,2013-06-27 05:43:00,
2013-06-27 01:45:00,68.0,66.8,29.83,South,183,0.0,0.0,96,0.00,,,0.00,Wunderground v.1.15,2013-06-27 05:45:00,
2013-06-27 01:50:00,68.0,66.8,29.83,South,183,0.0,0.0,96,0.00,,,0.00,Wunderground v.1.15,2013-06-27 05:50:00,
2013-06-27 01:54:00,68.1,66.9,29.83,South,183,0.0,0.0,96,0.00,,,0.00,Wunderground v.1.15,2013-06-27 05:54:00,
2013-06-27 01:59:00,68.1,66.9,29.83,South,183,0.0,0.0,96,0.00,,,0.00,Wunderground v.1.15,2013-06-27 05:59:00,
2013-06-27 02:00:00,68.1,66.9,29.83,South,183,0.0,0.0,96,0.00,,,0.00,Wunderground v.1.15,2013-06-27 06:00:00,
2013-06-27 02:04:00,68.2,67.0,29.82,SW,228,0.0,0.0,96,0.00,,,0.00,Wunderground v.1.15,2013-06-27 06:04:00,
2013-06-27 02:07:00,68.2,67.0,29.82,SW,228,0.0,0.0,96,0.00,,,0.00,Wunderground v.1.15,2013-06-27 06:07:00,
2013-06-27 02:10:00,68.2,67.0,29.82,SW,228,0.0,0.0,96,0.00,,,0.00,Wunderground v.1.15,2013-06-27 06:10:00,
2013-06-27 02:11:00,68.2,67.0,29.82,SW,228,0.0,0.0,96,0.00,,,0.00,Wunderground v.1.15,2013-06-27 06:11:00,
2013-06-27 02:13:00,68.3,67.1,29.82,SW,228,0.0,0.0,96,0.00,,,0.00,Wunderground v.1.15,2013-06-27 06:13:00,
2013-06-27 02:18:00,68.3,67.1,29.82,SW,228,0.0,0.0,96,0.00,,,0.00,Wunderground v.1.15,2013-06-27 06:18:00,
2013-06-27 02:19:00,68.3,67.1,29.81,SW,228,0.0,0.0,96,0.00,,,0.00,Wunderground v.1.15,2013-06-27 06:19:00,
2013-06-27 02:20:00,68.3,67.1,29.81,SW,228,0.0,0.0,96,0.00,,,0.00,Wunderground v.1.15,2013-06-27 06:20:00,
2013-06-27 02:25:00,68.3,67.1,29.82,SW,228,0.0,0.0,96,0.00,,,0.00,Wunderground v.1.15,2013-06-27 06:25:00,
2013-06-27 02:27:00,68.3,67.1,29.82,SW,228,0.0,1.0,96,0.00,,,0.00,Wunderground v.1.15,2013-06-27 06:27:00,
2013-06-27 02:29:00,68.4,67.2,29.81,SW,228,0.0,1.0,96,0.00,,,0.00,Wunderground v.1.15,2013-06-27 06:29:00,
2013-06-27 02:30:00,68.4,67.2,29.82,SW,228,0.0,0.0,96,0.00,,,0.00,Wunderground v.1.15,2013-06-27 06:30:00,
2013-06-27 02:34:00,68.4,67.2,29.82,SW,228,0.0,0.0,96,0.00,,,0.00,Wunderground v.1.15,2013-06-27 06:34:00,
2013-06-27 02:35:00,68.5,67.3,29.82,SW,228,0.0,0.0,96,0.00,,,0.00,Wunderground v.1.15,2013-06-27 06:35:00,
2013-06-27 02:36:00,68.4,67.2,29.82,SW,228,0.0,0.0,96,0.00,,,0.00,Wunderground v.1.15,2013-06-27 06:36:00,
2013-06-27 02:40:00,68.5,67.3,29.82,SW,228,0.0,0.0,96,0.00,,,0.00,Wunderground v.1.15,2013-06-27 06:40:00,
2013-06-27 02:42:00,68.5,67.3,29.82,SW,228,0.0,0.0,96,0.00,,,0.00,Wunderground v.1.15,2013-06-27 06:42:00,
2013-06-27 02:43:00,68.5,67.3,29.82,SW,228,0.0,0.0,96,0.00,,,0.00,Wunderground v.1.15,2013-06-27 06:43:00,
2013-06-27 02:45:00,68.6,67.4,29.82,SW,228,0.0,0.0,96,0.00,,,0.00,Wunderground v.1.15,2013-06-27 06:45:00,
2013-06-27 02:46:00,68.6,67.4,29.82,SW,228,0.0,0.0,96,0.00,,,0.00,Wunderground v.1.15,2013-06-27 06:46:00,
2013-06-27 02:47:00,68.6,67.4,29.82,SW,228,0.0,0.0,96,0.00,,,0.00,Wunderground v.1.15,2013-06-27 06:47:00,
2013-06-27 02:50:00,68.6,67.4,29.82,SW,228,0.0,0.0,96,0.00,,,0.00,Wunderground v.1.15,2013-06-27 06:50:00,
2013-06-27 02:53:00,68.6,67.4,29.82,SW,228,0.0,0.0,96,0.00,,,0.00,Wunderground v.1.15,2013-06-27 06:53:00,
2013-06-27 02:54:00,68.6,67.4,29.82,SW,228,0.0,0.0,96,0.00,,,0.00,Wunderground v.1.15,2013-06-27 06:54:00,
2013-06-27 02:55:00,68.7,67.5,29.82,SW,228,0.0,0.0,96,0.00,,,0.00,Wunderground v.1.15,2013-06-27 06:55:00,
2013-06-27 02:57:00,68.7,67.5,29.82,SW,228,0.0,0.0,96,0.00,,,0.00,Wunderground v.1.15,2013-06-27 06:57:00,
2013-06-27 02:59:00,68.7,67.5,29.82,SW,228,0.0,0.0,96,0.00,,,0.00,Wunderground v.1.15,2013-06-27 06:59:00,
2013-06-27 03:00:00,68.7,67.5,29.82,SW,228,0.0,0.0,96,0.00,,,0.00,Wunderground v.1.15,2013-06-27 07:00:00,
2013-06-27 03:01:00,68.8,67.6,29.82,SW,228,0.0,0.0,96,0.00,,,0.00,Wunderground v.1.15,2013-06-27 07:01:00,
2013-06-27 03:03:00,68.8,67.6,29.82,SW,228,0.0,0.0,96,0.00,,,0.00,Wunderground v.1.15,2013-06-27 07:03:00,
2013-06-27 03:07:00,68.8,67.6,29.82,SW,228,0.0,0.0,96,0.00,,,0.00,Wunderground v.1.15,2013-06-27 07:07:00,
2013-06-27 03:09:00,68.8,67.6,29.82,SW,228,0.0,0.0,96,0.00,,,0.00,Wunderground v.1.15,2013-06-27 07:09:00,
2013-06-27 03:10:00,68.8,67.6,29.82,SW,228,0.0,0.0,96,0.00,,,0.00,Wunderground v.1.15,2013-06-27 07:10:00,
2013-06-27 03:12:00,68.8,67.6,29.82,SW,228,0.0,0.0,96,0.00,,,0.00,Wunderground v.1.15,2013-06-27 07:12:00,
2013-06-27 03:15:00,68.8,67.6,29.81,SW,228,0.0,0.0,96,0.00,,,0.00,Wunderground v.1.15,2013-06-27 07:15:00,
2013-06-27 03:16:00,68.8,67.6,29.81,SW,228,0.0,0.0,96,0.00,,,0.00,Wunderground v.1.15,2013-06-27 07:16:00,
2013-06-27 03:17:00,68.8,67.6,29.81,SW,228,0.0,0.0,96,0.00,,,0.00,Wunderground v.1.15,2013-06-27 07:17:00,
2013-06-27 03:20:00,68.7,67.5,29.81,SW,228,0.0,0.0,96,0.00,,,0.00,Wunderground v.1.15,2013-06-27 07:20:00,
2013-06-27 03:21:00,68.8,67.6,29.81,SW,228,0.0,0.0,96,0.00,,,0.00,Wunderground v.1.15,2013-06-27 07:21:00,
2013-06-27 03:22:00,68.7,67.5,29.81,SW,228,0.0,0.0,96,0.00,,,0.00,Wunderground v.1.15,2013-06-27 07:22:00,
2013-06-27 03:26:00,68.7,67.5,29.81,SW,228,0.0,0.0,96,0.00,,,0.00,Wunderground v.1.15,2013-06-27 07:26:00,
2013-06-27 03:28:00,68.8,67.6,29.81,SW,228,0.0,0.0,96,0.00,,,0.00,Wunderground v.1.15,2013-06-27 07:28:00,
2013-06-27 03:29:00,68.7,67.5,29.81,SW,228,0.0,0.0,96,0.00,,,0.00,Wunderground v.1.15,2013-06-27 07:29:00,
2013-06-27 03:32:00,68.7,67.5,29.81,SW,228,0.0,0.0,96,0.00,,,0.00,Wunderground v.1.15,2013-06-27 07:32:00,
2013-06-27 03:33:00,68.7,67.5,29.81,SW,228,0.0,0.0,96,0.00,,,0.00,Wunderground v.1.15,2013-06-27 07:33:00,
2013-06-27 03:34:00,68.7,67.5,29.81,SW,228,0.0,0.0,96,0.00,,,0.00,Wunderground v.1.15,2013-06-27 07:34:00,
2013-06-27 03:36:00,68.7,67.5,29.81,SW,228,0.0,0.0,96,0.00,,,0.00,Wunderground v.1.15,2013-06-27 07:36:00,
2013-06-27 03:38:00,68.7,67.5,29.81,SW,228,0.0,0.0,96,0.00,,,0.00,Wunderground v.1.15,2013-06-27 07:38:00,
2013-06-27 03:40:00,68.6,67.4,29.81,SW,228,0.0,0.0,96,0.00,,,0.00,Wunderground v.1.15,2013-06-27 07:40:00,
2013-06-27 03:41:00,68.6,67.4,29.81,SW,228,0.0,0.0,96,0.00,,,0.00,Wunderground v.1.15,2013-06-27 07:41:00,
2013-06-27 03:43:00,68.7,67.5,29.81,SW,228,0.0,0.0,96,0.00,,,0.00,Wunderground v.1.15,2013-06-27 07:43:00,
2013-06-27 03:44:00,68.7,67.5,29.81,SW,228,0.0,0.0,96,0.00,,,0.00,Wunderground v.1.15,2013-06-27 07:44:00,
2013-06-27 03:45:00,68.7,67.5,29.81,SW,228,0.0,0.0,96,0.00,,,0.00,Wunderground v.1.15,2013-06-27 07:45:00,
2013-06-27 03:46:00,68.7,67.5,29.81,SW,228,0.0,0.0,96,0.00,,,0.00,Wunderground v.1.15,2013-06-27 07:46:00,
2013-06-27 03:47:00,68.7,67.5,29.81,SW,228,0.0,0.0,96,0.00,,,0.00,Wunderground v.1.15,2013-06-27 07:47:00,
2013-06-27 03:50:00,68.7,67.5,29.81,SW,228,0.0,0.0,96,0.00,,,0.00,Wunderground v.1.15,2013-06-27 07:50:00,
2013-06-27 03:52:00,68.8,67.6,29.81,SW,228,0.0,0.0,96,0.00,,,0.00,Wunderground v.1.15,2013-06-27 07:52:00,
2013-06-27 03:53:00,68.8,67.6,29.81,SW,228,0.0,0.0,96,0.00,,,0.00,Wunderground v.1.15,2013-06-27 07:53:00,
2013-06-27 03:54:00,68.8,67.6,29.81,SW,228,0.0,0.0,96,0.00,,,0.00,Wunderground v.1.15,2013-06-27 07:54:00,
2013-06-27 03:56:00,68.8,67.6,29.81,SW,228,0.0,0.0,96,0.00,,,0.00,Wunderground v.1.15,2013-06-27 07:56:00,
2013-06-27 03:59:00,68.8,67.6,29.81,SW,228,0.0,1.0,96,0.00,,,0.00,Wunderground v.1.15,2013-06-27 07:59:00,
2013-06-27 04:01:00,68.8,67.6,29.81,SW,228,0.0,0.0,96,0.00,,,0.00,Wunderground v.1.15,2013-06-27 08:01:00,
2013-06-27 04:02:00,68.8,67.6,29.81,SW,228,0.0,0.0,96,0.00,,,0.00,Wunderground v.1.15,2013-06-27 08:02:00,
2013-06-27 04:03:00,68.8,67.6,29.80,SSW,200,0.0,0.0,96,0.00,,,0.00,Wunderground v.1.15,2013-06-27 08:03:00,
2013-06-27 04:04:00,68.9,67.7,29.80,SSW,200,0.0,0.0,96,0.00,,,0.00,Wunderground v.1.15,2013-06-27 08:04:00,
2013-06-27 04:08:00,68.9,67.7,29.80,SW,225,0.0,0.0,96,0.00,,,0.00,Wunderground v.1.15,2013-06-27 08:08:00,
2013-06-27 04:09:00,68.9,67.7,29.80,SW,225,0.0,0.0,96,0.00,,,0.00,Wunderground v.1.15,2013-06-27 08:09:00,
2013-06-27 04:10:00,68.9,67.7,29.80,SW,228,0.0,1.0,96,0.00,,,0.00,Wunderground v.1.15,2013-06-27 08:10:00,
2013-06-27 04:12:00,68.9,67.7,29.80,SW,228,0.0,1.0,96,0.00,,,0.00,Wunderground v.1.15,2013-06-27 08:12:00,
2013-06-27 04:15:00,69.0,67.8,29.80,NW,318,0.0,2.0,96,0.00,,,0.00,Wunderground v.1.15,2013-06-27 08:15:00,
2013-06-27 04:17:00,69.0,68.1,29.80,West,281,0.0,2.0,97,0.00,,,0.00,Wunderground v.1.15,2013-06-27 08:17:00,
2013-06-27 04:18:00,69.0,68.1,29.80,West,281,0.0,2.0,97,0.00,,,0.00,Wunderground v.1.15,2013-06-27 08:18:00,
2013-06-27 04:19:00,69.0,68.1,29.80,West,281,0.0,2.0,97,0.00,,,0.00,Wunderground v.1.15,2013-06-27 08:19:00,
2013-06-27 04:23:00,69.2,68.3,29.80,West,281,0.0,0.0,97,0.00,,,0.00,Wunderground v.1.15,2013-06-27 08:23:00,
2013-06-27 04:24:00,69.2,68.3,29.80,West,281,0.0,0.0,97,0.00,,,0.00,Wunderground v.1.15,2013-06-27 08:24:00,
2013-06-27 04:25:00,69.2,68.3,29.80,West,281,0.0,0.0,97,0.00,,,0.00,Wunderground v.1.15,2013-06-27 08:25:00,
2013-06-27 04:26:00,69.2,68.3,29.80,West,281,0.0,0.0,97,0.00,,,0.00,Wunderground v.1.15,2013-06-27 08:26:00,
2013-06-27 04:29:00,69.3,68.4,29.80,West,278,0.0,0.0,97,0.00,,,0.00,Wunderground v.1.15,2013-06-27 08:29:00,
2013-06-27 04:30:00,69.3,68.4,29.80,West,278,0.0,0.0,97,0.00,,,0.00,Wunderground v.1.15,2013-06-27 08:30:00,
2013-06-27 04:31:00,69.3,68.4,29.80,West,278,0.0,0.0,97,0.00,,,0.00,Wunderground v.1.15,2013-06-27 08:31:00,
2013-06-27 04:33:00,69.3,68.1,29.80,West,278,0.0,0.0,96,0.00,,,0.00,Wunderground v.1.15,2013-06-27 08:33:00,
2013-06-27 04:34:00,69.4,68.2,29.80,West,278,0.0,0.0,96,0.00,,,0.00,Wunderground v.1.15,2013-06-27 08:34:00,
2013-06-27 04:37:00,69.5,68.6,29.80,WNW,289,0.0,1.0,97,0.00,,,0.00,Wunderground v.1.15,2013-06-27 08:37:00,
2013-06-27 04:39:00,69.5,68.3,29.80,WSW,240,0.0,1.0,96,0.00,,,0.00,Wunderground v.1.15,2013-06-27 08:39:00,
2013-06-27 04:42:00,69.6,68.4,29.80,West,263,0.0,1.0,96,0.00,,,0.00,Wunderground v.1.15,2013-06-27 08:42:00,
2013-06-27 04:44:00,69.6,68.4,29.80,West,263,0.0,1.0,96,0.00,,,0.00,Wunderground v.1.15,2013-06-27 08:44:00,
2013-06-27 04:45:00,69.6,68.7,29.80,West,263,0.0,1.0,97,0.00,,,0.00,Wunderground v.1.15,2013-06-27 08:45:00,
2013-06-27 04:49:00,69.7,68.8,29.80,SW,221,0.0,1.0,97,0.00,,,0.00,Wunderground v.1.15,2013-06-27 08:49:00,
2013-06-27 04:50:00,69.7,68.8,29.80,SW,221,0.0,0.0,97,0.00,,,0.00,Wunderground v.1.15,2013-06-27 08:50:00,
2013-06-27 04:52:00,69.8,68.9,29.80,SW,221,0.0,0.0,97,0.00,,,0.00,Wunderground v.1.15,2013-06-27 08:52:00,
2013-06-27 04:54:00,69.8,68.9,29.80,SW,222,0.0,0.0,97,0.00,,,0.00,Wunderground v.1.15,2013-06-27 08:54:00,
2013-06-27 04:57:00,69.9,69.0,29.80,West,269,0.0,0.0,97,0.00,,,0.00,Wunderground v.1.15,2013-06-27 08:57:00,
2013-06-27 04:59:00,69.9,69.0,29.80,West,269,0.0,0.0,97,0.00,,,0.00,Wunderground v.1.15,2013-06-27 08:59:00,
2013-06-27 05:03:00,70.0,69.1,29.80,West,269,0.0,1.0,97,0.00,,,0.00,Wunderground v.1.15,2013-06-27 09:03:00,
2013-06-27 05:04:00,70.0,69.1,29.80,West,269,0.0,1.0,97,0.00,,,0.00,Wunderground v.1.15,2013-06-27 09:04:00,
2013-06-27 05:05:00,70.0,69.1,29.80,West,269,0.0,1.0,97,0.00,,,0.00,Wunderground v.1.15,2013-06-27 09:05:00,
2013-06-27 05:08:00,70.0,69.1,29.80,West,269,0.0,1.0,97,0.00,,,0.00,Wunderground v.1.15,2013-06-27 09:08:00,
2013-06-27 05:09:00,70.1,69.2,29.80,West,269,0.0,1.0,97,0.00,,,0.00,Wunderground v.1.15,2013-06-27 09:09:00,
2013-06-27 05:10:00,70.1,69.2,29.80,West,269,0.0,0.0,97,0.00,,,0.00,Wunderground v.1.15,2013-06-27 09:10:00,
2013-06-27 05:15:00,70.2,69.3,29.80,West,269,0.0,0.0,97,0.00,,,0.00,Wunderground v.1.15,2013-06-27 09:15:00,
2013-06-27 05:16:00,70.2,69.3,29.80,West,269,0.0,0.0,97,0.00,,,0.00,Wunderground v.1.15,2013-06-27 09:16:00,
2013-06-27 05:17:00,70.2,69.3,29.80,West,269,0.0,0.0,97,0.00,,,0.00,Wunderground v.1.15,2013-06-27 09:17:00,
2013-06-27 05:22:00,70.3,69.4,29.80,West,269,0.0,0.0,97,0.00,,,0.00,Wunderground v.1.15,2013-06-27 09:22:00,
2013-06-27 05:23:00,70.3,69.4,29.80,West,269,0.0,0.0,97,0.00,,,0.00,Wunderground v.1.15,2013-06-27 09:23:00,
2013-06-27 05:24:00,70.3,69.4,29.80,West,269,0.0,0.0,97,0.00,,,0.00,Wunderground v.1.15,2013-06-27 09:24:00,
2013-06-27 05:25:00,70.3,69.4,29.80,West,269,0.0,1.0,97,0.00,,,0.00,Wunderground v.1.15,2013-06-27 09:25:00,
2013-06-27 05:26:00,70.3,69.4,29.80,West,269,0.0,1.0,97,0.00,,,0.00,Wunderground v.1.15,2013-06-27 09:26:00,
2013-06-27 05:28:00,70.3,69.4,29.80,West,269,0.0,1.0,97,0.00,,,0.00,Wunderground v.1.15,2013-06-27 09:28:00,
2013-06-27 05:29:00,70.3,69.4,29.80,West,269,0.0,1.0,97,0.00,,,0.00,Wunderground v.1.15,2013-06-27 09:29:00,
2013-06-27 05:31:00,70.3,69.4,29.80,West,269,0.0,0.0,97,0.00,,,0.00,Wunderground v.1.15,2013-06-27 09:31:00,
2013-06-27 05:33:00,83.8,75.0,29.82,NE,40,0.0,0.0,75,0.00,,,0.00,Wunderground v.1.15,2013-06-27 09:33:00,
2013-06-27 05:34:00,70.4,69.5,29.80,West,269,0.0,0.0,97,0.00,,,0.00,Wunderground v.1.15,2013-06-27 09:34:00,
2013-06-27 05:35:00,83.7,74.9,29.82,NE,40,0.0,0.0,75,0.00,,,0.00,Wunderground v.1.15,2013-06-27 09:35:00,
2013-06-27 05:36:00,70.4,69.5,29.80,West,269,0.0,1.0,97,0.00,,,0.00,Wunderground v.1.15,2013-06-27 09:36:00,
2013-06-27 05:37:00,70.4,69.5,29.80,West,269,0.0,1.0,97,0.00,,,0.00,Wunderground v.1.15,2013-06-27 09:37:00,
2013-06-27 05:40:00,70.5,69.6,29.80,West,269,0.0,0.0,97,0.00,,,0.00,Wunderground v.1.15,2013-06-27 09:40:00,
2013-06-27 05:41:00,83.5,75.1,29.83,North,5,0.0,0.0,76,0.00,,,0.00,Wunderground v.1.15,2013-06-27 09:41:00,
2013-06-27 05:42:00,70.5,69.6,29.80,West,268,0.0,0.0,97,0.00,,,0.00,Wunderground v.1.15,2013-06-27 09:42:00,
2013-06-27 05:43:00,83.4,75.0,29.83,North,5,0.0,1.0,76,0.00,,,0.00,Wunderground v.1.15,2013-06-27 09:43:00,
2013-06-27 05:44:00,83.4,75.0,29.82,North,5,0.0,1.0,76,0.00,,,0.00,Wunderground v.1.15,2013-06-27 09:44:00,
2013-06-27 05:45:00,70.5,69.6,29.80,West,268,0.0,0.0,97,0.00,,,0.00,Wunderground v.1.15,2013-06-27 09:45:00,
2013-06-27 05:46:00,70.5,69.6,29.80,West,268,0.0,0.0,97,0.00,,,0.00,Wunderground v.1.15,2013-06-27 09:46:00,
2013-06-27 05:47:00,70.6,69.7,29.80,West,268,0.0,0.0,97,0.00,,,0.00,Wunderground v.1.15,2013-06-27 09:47:00,
2013-06-27 05:48:00,70.6,69.7,29.80,West,268,0.0,0.0,97,0.00,,,0.00,Wunderground v.1.15,2013-06-27 09:48:00,
2013-06-27 05:49:00,83.1,74.7,29.82,WSW,246,0.0,1.0,76,0.00,,,0.00,Wunderground v.1.15,2013-06-27 09:49:00,
2013-06-27 05:50:00,83.0,74.6,29.82,WSW,246,0.0,0.0,76,0.00,,,0.00,Wunderground v.1.15,2013-06-27 09:50:00,
2013-06-27 05:51:00,82.9,74.6,29.82,WSW,246,0.0,0.0,76,0.00,,,0.00,Wunderground v.1.15,2013-06-27 09:51:00,
2013-06-27 05:52:00,70.6,69.7,29.80,West,268,0.0,0.0,97,0.00,,,0.00,Wunderground v.1.15,2013-06-27 09:52:00,
2013-06-27 05:53:00,70.6,69.7,29.80,West,268,0.0,0.0,97,0.00,,,0.00,Wunderground v.1.15,2013-06-27 09:53:00,
2013-06-27 05:54:00,70.6,69.7,29.81,West,268,0.0,0.0,97,0.00,,,0.00,Wunderground v.1.15,2013-06-27 09:54:00,
2013-06-27 05:55:00,70.6,69.7,29.80,West,268,0.0,0.0,97,0.00,,,0.00,Wunderground v.1.15,2013-06-27 09:55:00,
2013-06-27 05:56:00,82.8,74.8,29.82,WSW,246,0.0,0.0,77,0.00,,,0.00,Wunderground v.1.15,2013-06-27 09:56:00,
2013-06-27 05:57:00,82.8,75.2,29.82,WSW,246,0.0,1.0,78,0.00,,,0.00,Wunderground v.1.15,2013-06-27 09:57:00,
2013-06-27 05:58:00,70.6,69.7,29.80,West,268,0.0,0.0,97,0.00,,,0.00,Wunderground v.1.15,2013-06-27 09:58:00,
2013-06-27 05:59:00,82.7,74.8,29.82,WSW,246,0.0,1.0,77,0.00,,,0.00,Wunderground v.1.15,2013-06-27 09:59:00,
2013-06-27 06:00:00,70.6,69.7,29.80,West,268,0.0,0.0,97,0.00,,,0.00,Wunderground v.1.15,2013-06-27 10:00:00,
2013-06-27 06:01:00,82.7,75.1,29.82,WSW,246,0.0,1.0,78,0.00,,,0.00,Wunderground v.1.15,2013-06-27 10:01:00,
2013-06-27 06:02:00,70.7,69.8,29.81,West,268,0.0,0.0,97,0.00,,,0.00,Wunderground v.1.15,2013-06-27 10:02:00,
2013-06-27 06:03:00,70.7,69.8,29.81,West,268,0.0,0.0,97,0.00,,,0.00,Wunderground v.1.15,2013-06-27 10:03:00,
2013-06-27 06:04:00,82.6,75.4,29.82,WSW,246,0.0,1.0,79,0.00,,,0.00,Wunderground v.1.15,2013-06-27 10:04:00,
2013-06-27 06:05:00,70.7,69.8,29.81,West,268,0.0,0.0,97,0.00,,,0.00,Wunderground v.1.15,2013-06-27 10:05:00,
2013-06-27 06:06:00,82.5,74.9,29.82,WSW,246,0.0,1.0,78,0.00,,,0.00,Wunderground v.1.15,2013-06-27 10:06:00,
2013-06-27 06:07:00,82.5,74.9,29.82,WSW,246,0.0,1.0,78,0.00,,,0.00,Wunderground v.1.15,2013-06-27 10:07:00,
2013-06-27 06:08:00,70.8,69.9,29.81,West,268,0.0,0.0,97,0.00,,,0.00,Wunderground v.1.15,2013-06-27 10:08:00,
2013-06-27 06:09:00,70.8,69.9,29.81,West,268,0.0,0.0,97,0.00,,,0.00,Wunderground v.1.15,2013-06-27 10:09:00,
2013-06-27 06:10:00,70.8,69.9,29.81,West,268,0.0,0.0,97,0.00,,,0.00,Wunderground v.1.15,2013-06-27 10:10:00,
2013-06-27 06:11:00,82.5,75.3,29.82,WSW,246,0.0,0.0,79,0.00,,,0.00,Wunderground v.1.15,2013-06-27 10:11:00,
2013-06-27 06:12:00,82.5,75.3,29.82,WSW,246,0.0,0.0,79,0.00,,,0.00,Wunderground v.1.15,2013-06-27 10:12:00,
2013-06-27 06:13:00,82.5,75.3,29.82,WSW,246,0.0,0.0,79,0.00,,,0.00,Wunderground v.1.15,2013-06-27 10:13:00,
2013-06-27 06:14:00,82.4,75.2,29.82,WSW,246,0.0,0.0,79,0.00,,,0.00,Wunderground v.1.15,2013-06-27 10:14:00,
2013-06-27 06:15:00,70.8,69.9,29.81,West,268,0.0,0.0,97,0.00,,,0.00,Wunderground v.1.15,2013-06-27 10:15:00,
2013-06-27 06:16:00,70.9,70.0,29.81,West,268,0.0,0.0,97,0.00,,,0.00,Wunderground v.1.15,2013-06-27 10:16:00,
2013-06-27 06:17:00,70.9,70.0,29.81,West,268,0.0,0.0,97,0.00,,,0.00,Wunderground v.1.15,2013-06-27 10:17:00,
2013-06-27 06:18:00,70.9,70.0,29.81,West,268,0.0,0.0,97,0.00,,,0.00,Wunderground v.1.15,2013-06-27 10:18:00,
2013-06-27 06:19:00,82.1,75.3,29.82,WSW,246,0.0,0.0,80,0.00,,,0.00,Wunderground v.1.15,2013-06-27 10:19:00,
2013-06-27 06:20:00,70.9,70.0,29.81,West,268,0.0,0.0,97,0.00,,,0.00,Wunderground v.1.15,2013-06-27 10:20:00,
2013-06-27 06:21:00,81.9,75.5,29.82,WSW,246,0.0,0.0,81,0.00,,,0.00,Wunderground v.1.15,2013-06-27 10:21:00,
2013-06-27 06:22:00,71.0,70.1,29.81,West,268,0.0,0.0,97,0.00,,,0.00,Wunderground v.1.15,2013-06-27 10:22:00,
2013-06-27 06:23:00,70.9,70.0,29.81,West,268,0.0,0.0,97,0.00,,,0.00,Wunderground v.1.15,2013-06-27 10:23:00,
2013-06-27 06:24:00,71.0,70.1,29.81,West,268,0.0,0.0,97,0.00,,,0.00,Wunderground v.1.15,2013-06-27 10:24:00,
2013-06-27 06:25:00,81.4,75.4,29.82,West,266,0.0,1.0,82,0.00,,,0.00,Wunderground v.1.15,2013-06-27 10:25:00,
2013-06-27 06:26:00,81.3,75.6,29.82,NNW,337,0.0,9.0,83,0.00,,,0.00,Wunderground v.1.15,2013-06-27 10:26:00,
2013-06-27 06:27:00,71.0,70.1,29.82,West,268,0.0,0.0,97,0.00,,,0.00,Wunderground v.1.15,2013-06-27 10:27:00,
2013-06-27 06:28:00,71.0,70.1,29.82,West,268,0.0,0.0,97,0.00,,,0.00,Wunderground v.1.15,2013-06-27 10:28:00,
2013-06-27 06:29:00,71.0,70.1,29.82,West,268,0.0,0.0,97,0.00,,,0.00,Wunderground v.1.15,2013-06-27 10:29:00,
2013-06-27 06:30:00,80.7,75.1,29.82,WSW,248,1.0,2.0,83,0.00,,,0.00,Wunderground v.1.15,2013-06-27 10:30:00,
2013-06-27 06:31:00,80.6,75.0,29.82,SW,215,1.0,2.0,83,0.00,,,0.00,Wunderground v.1.15,2013-06-27 10:31:00,
2013-06-27 06:32:00,80.5,74.5,29.82,NW,323,1.0,2.0,82,0.00,,,0.00,Wunderground v.1.15,2013-06-27 10:32:00,
2013-06-27 06:33:00,71.1,70.2,29.82,West,268,0.0,0.0,97,0.00,,,0.00,Wunderground v.1.15,2013-06-27 10:33:00,
2013-06-27 06:34:00,80.4,74.4,29.82,WNW,298,2.0,2.0,82,0.00,,,0.00,Wunderground v.1.15,2013-06-27 10:34:00,
2013-06-27 06:35:00,71.1,70.2,29.82,West,268,0.0,0.0,97,0.00,,,0.00,Wunderground v.1.15,2013-06-27 10:35:00,
2013-06-27 06:36:00,80.4,74.4,29.82,NW,315,2.0,2.0,82,0.00,,,0.00,Wunderground v.1.15,2013-06-27 10:36:00,
2013-06-27 06:37:00,80.4,74.4,29.82,NW,323,1.0,2.0,82,0.00,,,0.00,Wunderground v.1.15,2013-06-27 10:37:00,
2013-06-27 06:38:00,71.2,70.3,29.82,West,268,0.0,0.0,97,0.00,,,0.00,Wunderground v.1.15,2013-06-27 10:38:00,
2013-06-27 06:39:00,71.2,70.3,29.82,West,268,0.0,0.0,97,0.00,,,0.00,Wunderground v.1.15,2013-06-27 10:39:00,
2013-06-27 06:40:00,80.6,73.9,29.82,West,262,1.0,1.0,80,0.00,,,0.00,Wunderground v.1.15,2013-06-27 10:40:00,
2013-06-27 06:41:00,71.2,70.3,29.82,West,268,0.0,0.0,97,0.00,,,0.00,Wunderground v.1.15,2013-06-27 10:41:00,
2013-06-27 06:42:00,80.8,73.7,29.82,West,268,1.0,1.0,79,0.00,,,0.00,Wunderground v.1.15,2013-06-27 10:42:00,
2013-06-27 06:43:00,71.2,70.3,29.82,SSW,202,0.0,1.0,97,0.00,,,0.00,Wunderground v.1.15,2013-06-27 10:43:00,
2013-06-27 06:44:00,71.2,70.3,29.82,SSW,202,0.0,1.0,97,0.00,,,0.00,Wunderground v.1.15,2013-06-27 10:44:00,
2013-06-27 06:45:00,81.1,73.6,29.82,WSW,256,1.0,1.0,78,0.00,,,0.00,Wunderground v.1.15,2013-06-27 10:45:00,
2013-06-27 06:46:00,71.3,70.4,29.82,SSW,202,0.0,1.0,97,0.00,,,0.00,Wunderground v.1.15,2013-06-27 10:46:00,
2013-06-27 06:47:00,81.2,73.7,29.81,WSW,258,1.0,2.0,78,0.00,,,0.00,Wunderground v.1.15,2013-06-27 10:47:00,
2013-06-27 06:48:00,71.3,70.4,29.82,SSW,202,0.0,1.0,97,0.00,,,0.00,Wunderground v.1.15,2013-06-27 10:48:00,
2013-06-27 06:49:00,71.3,70.4,29.82,SSW,202,0.0,1.0,97,0.00,,,0.00,Wunderground v.1.15,2013-06-27 10:49:00,
2013-06-27 06:50:00,81.4,73.5,29.81,WSW,253,1.0,2.0,77,0.00,,,0.00,Wunderground v.1.15,2013-06-27 10:50:00,
2013-06-27 06:51:00,71.4,70.5,29.82,SSW,202,0.0,0.0,97,0.00,,,0.00,Wunderground v.1.15,2013-06-27 10:51:00,
2013-06-27 06:52:00,81.4,72.3,29.81,West,269,1.0,2.0,74,0.00,,,0.00,Wunderground v.1.15,2013-06-27 10:52:00,
2013-06-27 06:53:00,81.4,72.7,29.81,West,262,1.0,2.0,75,0.00,,,0.00,Wunderground v.1.15,2013-06-27 10:53:00,
2013-06-27 06:54:00,71.4,70.5,29.82,SSW,202,0.0,0.0,97,0.00,,,0.00,Wunderground v.1.15,2013-06-27 10:54:00,
2013-06-27 06:55:00,71.4,70.5,29.82,SSW,207,0.0,0.0,97,0.00,,,0.00,Wunderground v.1.15,2013-06-27 10:55:00,
2013-06-27 06:56:00,81.5,72.8,29.81,WNW,287,1.0,2.0,75,0.00,,,0.00,Wunderground v.1.15,2013-06-27 10:56:00,
2013-06-27 06:57:00,71.5,70.6,29.82,SSW,207,0.0,0.0,97,0.00,,,0.00,Wunderground v.1.15,2013-06-27 10:57:00,
2013-06-27 06:58:00,81.5,72.0,29.81,NNE,13,0.0,2.0,73,0.00,,,0.00,Wunderground v.1.15,2013-06-27 10:58:00,
2013-06-27 06:59:00,71.5,70.6,29.82,SSW,207,0.0,0.0,97,0.00,,,0.00,Wunderground v.1.15,2013-06-27 10:59:00,
2013-06-27 07:00:00,71.5,70.6,29.82,SSW,207,0.0,0.0,97,0.00,,,0.00,Wunderground v.1.15,2013-06-27 11:00:00,
2013-06-27 07:01:00,81.6,72.9,29.81,NNW,346,0.0,2.0,75,0.00,,,0.00,Wunderground v.1.15,2013-06-27 11:01:00,
2013-06-27 07:02:00,71.5,70.6,29.82,SSW,207,0.0,0.0,97,0.00,,,0.00,Wunderground v.1.15,2013-06-27 11:02:00,
2013-06-27 07:03:00,71.5,70.6,29.83,SSW,207,0.0,0.0,97,0.00,,,0.00,Wunderground v.1.15,2013-06-27 11:03:00,
2013-06-27 07:04:00,71.5,70.6,29.82,SSW,207,0.0,0.0,97,0.00,,,0.00,Wunderground v.1.15,2013-06-27 11:04:00,
2013-06-27 07:05:00,71.5,70.6,29.82,SSW,207,0.0,0.0,97,0.00,,,0.00,Wunderground v.1.15,2013-06-27 11:05:00,
2013-06-27 07:06:00,71.5,70.6,29.82,SSW,207,0.0,0.0,97,0.00,,,0.00,Wunderground v.1.15,2013-06-27 11:06:00,
2013-06-27 07:07:00,71.5,70.6,29.82,SSW,207,0.0,0.0,97,0.00,,,0.00,Wunderground v.1.15,2013-06-27 11:07:00,
2013-06-27 07:08:00,81.7,72.2,29.81,NE,42,0.0,2.0,73,0.00,,,0.00,Wunderground v.1.15,2013-06-27 11:08:00,
2013-06-27 07:09:00,71.5,70.6,29.82,SSW,207,0.0,0.0,97,0.00,,,0.00,Wunderground v.1.15,2013-06-27 11:09:00,
2013-06-27 07:10:00,81.7,72.2,29.81,NE,42,0.0,1.0,73,0.00,,,0.00,Wunderground v.1.15,2013-06-27 11:10:00,
2013-06-27 07:11:00,81.7,72.2,29.81,NE,42,0.0,1.0,73,0.00,,,0.00,Wunderground v.1.15,2013-06-27 11:11:00,
2013-06-27 07:12:00,81.7,72.6,29.81,NE,42,0.0,1.0,74,0.00,,,0.00,Wunderground v.1.15,2013-06-27 11:12:00,
2013-06-27 07:13:00,71.6,70.7,29.82,SSW,207,0.0,0.0,97,0.00,,,0.00,Wunderground v.1.15,2013-06-27 11:13:00,
2013-06-27 07:14:00,81.8,72.3,29.81,NE,42,0.0,1.0,73,0.00,,,0.00,Wunderground v.1.15,2013-06-27 11:14:00,
2013-06-27 07:15:00,71.7,70.8,29.82,SSW,207,0.0,0.0,97,0.00,,,0.00,Wunderground v.1.15,2013-06-27 11:15:00,
2013-06-27 07:16:00,81.9,72.8,29.81,NE,42,0.0,1.0,74,0.00,,,0.00,Wunderground v.1.15,2013-06-27 11:16:00,
2013-06-27 07:17:00,82.0,72.5,29.81,NE,42,0.0,1.0,73,0.00,,,0.00,Wunderground v.1.15,2013-06-27 11:17:00,
2013-06-27 07:18:00,82.0,72.9,29.81,NE,42,0.0,1.0,74,0.00,,,0.00,Wunderground v.1.15,2013-06-27 11:18:00,
2013-06-27 07:19:00,71.7,70.8,29.82,SSW,207,0.0,0.0,97,0.00,,,0.00,Wunderground v.1.15,2013-06-27 11:19:00,
2013-06-27 07:20:00,71.7,70.8,29.82,SSW,207,0.0,0.0,97,0.00,,,0.00,Wunderground v.1.15,2013-06-27 11:20:00,
2013-06-27 07:21:00,71.7,70.8,29.82,SSW,207,0.0,0.0,97,0.00,,,0.00,Wunderground v.1.15,2013-06-27 11:21:00,
2013-06-27 07:22:00,82.3,73.6,29.81,SSE,156,0.0,1.0,75,0.00,,,0.00,Wunderground v.1.15,2013-06-27 11:22:00,
2013-06-27 07:23:00,71.8,70.9,29.82,WNW,285,0.0,0.0,97,0.00,,,0.00,Wunderground v.1.15,2013-06-27 11:23:00,
2013-06-27 07:24:00,71.8,70.9,29.82,WNW,285,0.0,0.0,97,0.00,,,0.00,Wunderground v.1.15,2013-06-27 11:24:00,
2013-06-27 07:25:00,82.6,73.5,29.81,West,263,0.0,1.0,74,0.00,,,0.00,Wunderground v.1.15,2013-06-27 11:25:00,
2013-06-27 07:26:00,71.8,70.9,29.82,WNW,285,0.0,0.0,97,0.00,,,0.00,Wunderground v.1.15,2013-06-27 11:26:00,
2013-06-27 07:27:00,82.7,73.6,29.81,ENE,60,0.0,1.0,74,0.00,,,0.00,Wunderground v.1.15,2013-06-27 11:27:00,
2013-06-27 07:28:00,71.9,71.0,29.82,WNW,285,0.0,0.0,97,0.00,,,0.00,Wunderground v.1.15,2013-06-27 11:28:00,
2013-06-27 07:29:00,82.8,73.7,29.81,ENE,60,0.0,2.0,74,0.00,,,0.00,Wunderground v.1.15,2013-06-27 11:29:00,
2013-06-27 07:30:00,71.9,71.0,29.82,WNW,285,0.0,0.0,97,0.00,,,0.00,Wunderground v.1.15,2013-06-27 11:30:00,
2013-06-27 07:31:00,71.9,71.0,29.82,WNW,285,0.0,0.0,97,0.00,,,0.00,Wunderground v.1.15,2013-06-27 11:31:00,
2013-06-27 07:32:00,71.9,71.0,29.82,WNW,285,0.0,0.0,97,0.00,,,0.00,Wunderground v.1.15,2013-06-27 11:32:00,
2013-06-27 07:33:00,83.0,73.9,29.80,ENE,60,0.0,0.0,74,0.00,,,0.00,Wunderground v.1.15,2013-06-27 11:33:00,
2013-06-27 07:34:00,71.9,71.0,29.82,WNW,285,0.0,0.0,97,0.00,,,0.00,Wunderground v.1.15,2013-06-27 11:34:00,
2013-06-27 07:35:00,71.9,71.0,29.82,WNW,285,0.0,0.0,97,0.00,,,0.00,Wunderground v.1.15,2013-06-27 11:35:00,
2013-06-27 07:36:00,83.3,74.1,29.80,ENE,59,0.0,0.0,74,0.00,,,0.00,Wunderground v.1.15,2013-06-27 11:36:00,
2013-06-27 07:37:00,71.9,71.0,29.82,SW,219,0.0,0.0,97,0.00,,,0.00,Wunderground v.1.15,2013-06-27 11:37:00,
2013-06-27 07:38:00,83.5,74.3,29.80,ENE,59,0.0,0.0,74,0.00,,,0.00,Wunderground v.1.15,2013-06-27 11:38:00,
2013-06-27 07:39:00,83.6,74.4,29.80,ENE,59,0.0,0.0,74,0.00,,,0.00,Wunderground v.1.15,2013-06-27 11:39:00,
2013-06-27 07:40:00,72.0,71.1,29.82,West,279,0.0,0.0,97,0.00,,,0.00,Wunderground v.1.15,2013-06-27 11:40:00,
2013-06-27 07:41:00,72.0,71.1,29.82,West,279,0.0,0.0,97,0.00,,,0.00,Wunderground v.1.15,2013-06-27 11:41:00,
2013-06-27 07:42:00,72.0,71.1,29.82,West,279,0.0,0.0,97,0.00,,,0.00,Wunderground v.1.15,2013-06-27 11:42:00,
2013-06-27 07:43:00,84.0,75.2,29.80,ENE,59,0.0,0.0,75,0.00,,,0.00,Wunderground v.1.15,2013-06-27 11:43:00,
2013-06-27 07:44:00,84.1,74.5,29.80,NE,35,0.0,0.0,73,0.00,,,0.00,Wunderground v.1.15,2013-06-27 11:44:00,
2013-06-27 07:45:00,84.3,75.1,29.80,NE,35,0.0,0.0,74,0.00,,,0.00,Wunderground v.1.15,2013-06-27 11:45:00,
2013-06-27 07:46:00,72.1,71.2,29.82,West,279,0.0,0.0,97,0.00,,,0.00,Wunderground v.1.15,2013-06-27 11:46:00,
2013-06-27 07:47:00,84.6,75.4,29.80,NE,35,0.0,0.0,74,0.00,,,0.00,Wunderground v.1.15,2013-06-27 11:47:00,
2013-06-27 07:48:00,72.1,71.2,29.82,West,269,0.0,0.0,97,0.00,,,0.00,Wunderground v.1.15,2013-06-27 11:48:00,
2013-06-27 07:49:00,72.1,71.2,29.82,WSW,250,0.0,0.0,97,0.00,,,0.00,Wunderground v.1.15,2013-06-27 11:49:00,
2013-06-27 07:50:00,84.8,76.0,29.80,NE,35,0.0,0.0,75,0.00,,,0.00,Wunderground v.1.15,2013-06-27 11:50:00,
2013-06-27 07:51:00,84.8,75.2,29.80,WSW,244,0.0,0.0,73,0.00,,,0.00,Wunderground v.1.15,2013-06-27 11:51:00,
2013-06-27 07:52:00,72.1,71.2,29.83,SSW,198,0.0,0.0,97,0.00,,,0.00,Wunderground v.1.15,2013-06-27 11:52:00,
2013-06-27 07:53:00,84.7,74.7,29.80,WSW,244,0.0,0.0,72,0.00,,,0.00,Wunderground v.1.15,2013-06-27 11:53:00,
2013-06-27 07:54:00,72.2,71.3,29.83,SSW,198,0.0,0.0,97,0.00,,,0.00,Wunderground v.1.15,2013-06-27 11:54:00,
2013-06-27 07:55:00,72.2,71.3,29.83,SSW,198,0.0,0.0,97,0.00,,,0.00,Wunderground v.1.15,2013-06-27 11:55:00,
2013-06-27 07:56:00,72.2,71.3,29.83,SSW,198,0.0,0.0,97,0.00,,,0.00,Wunderground v.1.15,2013-06-27 11:56:00,
2013-06-27 07:57:00,84.5,74.5,29.80,WSW,254,0.0,0.0,72,0.00,,,0.00,Wunderground v.1.15,2013-06-27 11:57:00,
2013-06-27 07:58:00,84.4,74.4,29.80,WSW,254,0.0,0.0,72,0.00,,,0.00,Wunderground v.1.15,2013-06-27 11:58:00,
2013-06-27 08:00:00,72.2,71.3,29.83,WSW,243,0.0,0.0,97,0.00,,,0.00,Wunderground v.1.15,2013-06-27 12:00:00,
2013-06-27 08:01:00,84.1,74.5,29.80,West,263,0.0,2.0,73,0.00,,,0.00,Wunderground v.1.15,2013-06-27 12:01:00,
2013-06-27 08:02:00,72.3,71.4,29.83,WSW,243,0.0,0.0,97,0.00,,,0.00,Wunderground v.1.15,2013-06-27 12:02:00,
2013-06-27 08:03:00,83.9,73.9,29.80,West,271,0.0,2.0,72,0.00,,,0.00,Wunderground v.1.15,2013-06-27 12:03:00,
2013-06-27 08:04:00,83.8,73.8,29.80,West,271,0.0,2.0,72,0.00,,,0.00,Wunderground v.1.15,2013-06-27 12:04:00,
2013-06-27 08:05:00,83.8,74.2,29.80,West,271,0.0,2.0,73,0.00,,,0.00,Wunderground v.1.15,2013-06-27 12:05:00,
2013-06-27 08:06:00,72.3,71.4,29.83,SSW,205,0.0,0.0,97,0.00,,,0.00,Wunderground v.1.15,2013-06-27 12:06:00,
2013-06-27 08:07:00,72.3,71.4,29.82,SSW,205,0.0,0.0,97,0.00,,,0.00,Wunderground v.1.15,2013-06-27 12:07:00,
2013-06-27 08:08:00,72.3,71.4,29.82,SSW,205,0.0,0.0,97,0.00,,,0.00,Wunderground v.1.15,2013-06-27 12:08:00,
2013-06-27 08:09:00,83.6,73.6,29.80,West,275,1.0,2.0,72,0.00,,,0.00,Wunderground v.1.15,2013-06-27 12:09:00,
2013-06-27 08:10:00,72.4,71.5,29.82,SSW,205,0.0,0.0,97,0.00,,,0.00,Wunderground v.1.15,2013-06-27 12:10:00,
2013-06-27 08:12:00,72.4,71.5,29.82,SSW,205,0.0,0.0,97,0.00,,,0.00,Wunderground v.1.15,2013-06-27 12:12:00,
2013-06-27 08:13:00,72.4,71.5,29.82,SSW,205,0.0,0.0,97,0.00,,,0.00,Wunderground v.1.15,2013-06-27 12:13:00,
2013-06-27 08:14:00,83.4,73.8,29.81,NW,305,1.0,4.0,73,0.00,,,0.00,Wunderground v.1.15,2013-06-27 12:14:00,
2013-06-27 08:16:00,72.4,71.5,29.83,SSW,205,0.0,1.0,97,0.00,,,0.00,Wunderground v.1.15,2013-06-27 12:16:00,
2013-06-27 08:17:00,72.4,71.5,29.83,SSW,205,0.0,1.0,97,0.00,,,0.00,Wunderground v.1.15,2013-06-27 12:17:00,
2013-06-27 08:18:00,83.2,74.0,29.81,WNW,286,1.0,4.0,74,0.00,,,0.00,Wunderground v.1.15,2013-06-27 12:18:00,
2013-06-27 08:21:00,72.4,71.5,29.83,SW,215,0.0,0.0,97,0.00,,,0.00,Wunderground v.1.15,2013-06-27 12:21:00,
2013-06-27 08:22:00,72.4,71.5,29.83,SW,215,0.0,0.0,97,0.00,,,0.00,Wunderground v.1.15,2013-06-27 12:22:00,
2013-06-27 08:23:00,72.5,71.6,29.83,SW,215,0.0,0.0,97,0.00,,,0.00,Wunderground v.1.15,2013-06-27 12:23:00,
2013-06-27 08:24:00,72.5,71.6,29.83,SW,215,0.0,0.0,97,0.00,,,0.00,Wunderground v.1.15,2013-06-27 12:24:00,
2013-06-27 08:25:00,82.9,73.8,29.80,WSW,238,1.0,5.0,74,0.00,,,0.00,Wunderground v.1.15,2013-06-27 12:25:00,
2013-06-27 08:26:00,72.5,71.6,29.83,SW,215,0.0,1.0,97,0.00,,,0.00,Wunderground v.1.15,2013-06-27 12:26:00,
2013-06-27 08:27:00,72.5,71.6,29.83,SW,215,0.0,1.0,97,0.00,,,0.00,Wunderground v.1.15,2013-06-27 12:27:00,
2013-06-27 08:28:00,72.5,71.6,29.83,SW,215,0.0,1.0,97,0.00,,,0.00,Wunderground v.1.15,2013-06-27 12:28:00,
2013-06-27 08:29:00,82.8,74.1,29.81,WSW,238,1.0,5.0,75,0.00,,,0.00,Wunderground v.1.15,2013-06-27 12:29:00,
2013-06-27 08:30:00,82.9,74.2,29.80,WSW,238,0.0,0.0,75,0.00,,,0.00,Wunderground v.1.15,2013-06-27 12:30:00,
2013-06-27 08:31:00,82.9,74.2,29.80,WSW,238,0.0,0.0,75,0.00,,,0.00,Wunderground v.1.15,2013-06-27 12:31:00,
2013-06-27 08:32:00,72.6,71.7,29.83,SW,215,0.0,0.0,97,0.00,,,0.00,Wunderground v.1.15,2013-06-27 12:32:00,
2013-06-27 08:33:00,72.6,71.7,29.83,SW,215,0.0,0.0,97,0.00,,,0.00,Wunderground v.1.15,2013-06-27 12:33:00,
2013-06-27 08:34:00,82.9,74.2,29.81,WSW,240,0.0,0.0,75,0.00,,,0.00,Wunderground v.1.15,2013-06-27 12:34:00,
2013-06-27 08:35:00,72.7,71.8,29.83,SW,215,0.0,0.0,97,0.00,,,0.00,Wunderground v.1.15,2013-06-27 12:35:00,
2013-06-27 08:36:00,72.7,71.8,29.83,SW,215,0.0,0.0,97,0.00,,,0.00,Wunderground v.1.15,2013-06-27 12:36:00,
2013-06-27 08:37:00,82.8,74.1,29.80,WNW,290,0.0,0.0,75,0.00,,,0.00,Wunderground v.1.15,2013-06-27 12:37:00,
2013-06-27 08:38:00,72.8,71.9,29.83,SW,215,0.0,0.0,97,0.00,,,0.00,Wunderground v.1.15,2013-06-27 12:38:00,
2013-06-27 08:39:00,82.9,74.2,29.80,West,275,0.0,0.0,75,0.00,,,0.00,Wunderground v.1.15,2013-06-27 12:39:00,
2013-06-27 08:40:00,72.8,71.9,29.83,SW,215,0.0,0.0,97,0.00,,,0.00,Wunderground v.1.15,2013-06-27 12:40:00,
2013-06-27 08:41:00,82.9,74.6,29.80,West,275,0.0,0.0,76,0.00,,,0.00,Wunderground v.1.15,2013-06-27 12:41:00,
2013-06-27 08:42:00,72.8,71.9,29.83,SW,215,0.0,0.0,97,0.00,,,0.00,Wunderground v.1.15,2013-06-27 12:42:00,
2013-06-27 08:43:00,72.9,72.0,29.83,SW,215,0.0,0.0,97,0.00,,,0.00,Wunderground v.1.15,2013-06-27 12:43:00,
2013-06-27 08:45:00,72.9,72.0,29.83,SW,215,0.0,0.0,97,0.00,,,0.00,Wunderground v.1.15,2013-06-27 12:45:00,
2013-06-27 08:46:00,72.9,72.0,29.83,SW,215,0.0,0.0,97,0.00,,,0.00,Wunderground v.1.15,2013-06-27 12:46:00,
2013-06-27 08:47:00,72.9,72.0,29.83,SW,215,0.0,0.0,97,0.00,,,0.00,Wunderground v.1.15,2013-06-27 12:47:00,
2013-06-27 08:48:00,82.8,74.5,29.80,WNW,284,0.0,1.0,76,0.00,,,0.00,Wunderground v.1.15,2013-06-27 12:48:00,
2013-06-27 08:49:00,82.8,74.1,29.80,WNW,284,0.0,1.0,75,0.00,,,0.00,Wunderground v.1.15,2013-06-27 12:49:00,
2013-06-27 08:50:00,82.9,74.2,29.80,WNW,284,0.0,0.0,75,0.00,,,0.00,Wunderground v.1.15,2013-06-27 12:50:00,
2013-06-27 08:51:00,73.0,72.1,29.83,SSE,161,0.0,1.0,97,0.00,,,0.00,Wunderground v.1.15,2013-06-27 12:51:00,
2013-06-27 08:52:00,73.1,72.2,29.83,SW,229,0.0,1.0,97,0.00,,,0.00,Wunderground v.1.15,2013-06-27 12:52:00,
2013-06-27 08:53:00,82.9,74.2,29.80,WNW,286,0.0,2.0,75,0.00,,,0.00,Wunderground v.1.15,2013-06-27 12:53:00,
2013-06-27 08:54:00,73.1,72.2,29.83,SSW,211,0.0,1.0,97,0.00,,,0.00,Wunderground v.1.15,2013-06-27 12:54:00,
2013-06-27 08:55:00,73.1,72.2,29.84,SSW,211,0.0,1.0,97,0.00,,,0.00,Wunderground v.1.15,2013-06-27 12:55:00,
2013-06-27 08:56:00,83.0,74.6,29.81,WNW,286,0.0,2.0,76,0.00,,,0.00,Wunderground v.1.15,2013-06-27 12:56:00,
2013-06-27 08:57:00,83.0,75.4,29.81,WNW,286,0.0,2.0,78,0.00,,,0.00,Wunderground v.1.15,2013-06-27 12:57:00,
2013-06-27 08:58:00,73.1,72.2,29.83,West,272,0.0,3.0,97,0.00,,,0.00,Wunderground v.1.15,2013-06-27 12:58:00,
2013-06-27 08:59:00,73.1,72.2,29.84,West,272,0.0,3.0,97,0.00,,,0.00,Wunderground v.1.15,2013-06-27 12:59:00,
2013-06-27 09:00:00,73.1,72.2,29.83,West,272,0.0,0.0,97,0.00,,,0.00,Wunderground v.1.15,2013-06-27 13:00:00,
2013-06-27 09:01:00,73.1,72.2,29.84,SSW,211,0.0,0.0,97,0.00,,,0.00,Wunderground v.1.15,2013-06-27 13:01:00,
2013-06-27 09:02:00,82.9,74.6,29.81,WNW,286,0.0,0.0,76,0.00,,,0.00,Wunderground v.1.15,2013-06-27 13:02:00,
2013-06-27 09:03:00,73.1,72.2,29.84,SW,215,0.0,1.0,97,0.00,,,0.00,Wunderground v.1.15,2013-06-27 13:03:00,
2013-06-27 09:04:00,73.1,72.2,29.84,SW,215,0.0,1.0,97,0.00,,,0.00,Wunderground v.1.15,2013-06-27 13:04:00,
2013-06-27 09:05:00,73.1,72.2,29.84,SW,215,0.0,1.0,97,0.00,,,0.00,Wunderground v.1.15,2013-06-27 13:05:00,
2013-06-27 09:06:00,73.1,72.2,29.84,SW,215,0.0,1.0,97,0.00,,,0.00,Wunderground v.1.15,2013-06-27 13:06:00,
2013-06-27 09:07:00,82.7,74.4,29.80,WNW,284,0.0,0.0,76,0.00,,,0.00,Wunderground v.1.15,2013-06-27 13:07:00,
2013-06-27 09:09:00,73.1,72.2,29.84,SW,215,0.0,1.0,97,0.00,,,0.00,Wunderground v.1.15,2013-06-27 13:09:00,
2013-06-27 09:10:00,73.2,72.3,29.84,SW,215,0.0,0.0,97,0.00,,,0.00,Wunderground v.1.15,2013-06-27 13:10:00,
2013-06-27 09:11:00,82.6,74.3,29.81,West,274,0.0,2.0,76,0.00,,,0.00,Wunderground v.1.15,2013-06-27 13:11:00,
2013-06-27 09:12:00,73.2,72.3,29.84,SW,215,0.0,0.0,97,0.00,,,0.00,Wunderground v.1.15,2013-06-27 13:12:00,
2013-06-27 09:14:00,82.5,74.2,29.81,West,274,0.0,2.0,76,0.00,,,0.00,Wunderground v.1.15,2013-06-27 13:14:00,
2013-06-27 09:15:00,82.5,74.6,29.81,West,274,0.0,2.0,77,0.00,,,0.00,Wunderground v.1.15,2013-06-27 13:15:00,
2013-06-27 09:16:00,73.3,72.4,29.84,SW,216,0.0,0.0,97,0.00,,,0.00,Wunderground v.1.15,2013-06-27 13:16:00,
2013-06-27 09:17:00,82.4,74.1,29.81,West,274,0.0,2.0,76,0.00,,,0.00,Wunderground v.1.15,2013-06-27 13:17:00,
2013-06-27 09:18:00,73.2,72.3,29.84,SW,216,0.0,0.0,97,0.00,,,0.00,Wunderground v.1.15,2013-06-27 13:18:00,
2013-06-27 09:19:00,73.2,72.3,29.84,SW,216,0.0,1.0,97,0.00,,,0.00,Wunderground v.1.15,2013-06-27 13:19:00,
2013-06-27 09:20:00,82.3,74.4,29.81,West,274,0.0,0.0,77,0.00,,,0.00,Wunderground v.1.15,2013-06-27 13:20:00,
2013-06-27 09:21:00,73.2,72.3,29.84,SW,216,0.0,0.0,97,0.00,,,0.00,Wunderground v.1.15,2013-06-27 13:21:00,
2013-06-27 09:22:00,73.2,72.3,29.84,SW,216,0.0,0.0,97,0.00,,,0.00,Wunderground v.1.15,2013-06-27 13:22:00,
2013-06-27 09:23:00,73.3,72.4,29.84,SW,216,0.0,0.0,97,0.00,,,0.00,Wunderground v.1.15,2013-06-27 13:23:00,
2013-06-27 09:24:00,82.2,73.9,29.81,WNW,284,0.0,0.0,76,0.00,,,0.00,Wunderground v.1.15,2013-06-27 13:24:00,
2013-06-27 09:25:00,82.1,73.8,29.81,WNW,284,0.0,0.0,76,0.00,,,0.00,Wunderground v.1.15,2013-06-27 13:25:00,
2013-06-27 09:26:00,82.1,73.8,29.81,WNW,284,0.0,0.0,76,0.00,,,0.00,Wunderground v.1.15,2013-06-27 13:26:00,
2013-06-27 09:27:00,73.4,72.5,29.84,WSW,237,0.0,0.0,97,0.00,,,0.00,Wunderground v.1.15,2013-06-27 13:27:00,
2013-06-27 09:28:00,73.4,72.5,29.84,WSW,237,0.0,0.0,97,0.00,,,0.00,Wunderground v.1.15,2013-06-27 13:28:00,
2013-06-27 09:29:00,73.4,72.5,29.84,WSW,237,0.0,0.0,97,0.00,,,0.00,Wunderground v.1.15,2013-06-27 13:29:00,
2013-06-27 09:30:00,73.4,72.5,29.84,WSW,237,0.0,0.0,97,0.00,,,0.00,Wunderground v.1.15,2013-06-27 13:30:00,
2013-06-27 09:31:00,73.4,72.5,29.84,WSW,237,0.0,1.0,97,0.00,,,0.00,Wunderground v.1.15,2013-06-27 13:31:00,
2013-06-27 09:33:00,73.4,72.5,29.84,West,279,0.0,1.0,97,0.00,,,0.00,Wunderground v.1.15,2013-06-27 13:33:00,
2013-06-27 09:34:00,73.3,72.4,29.84,West,279,0.0,1.0,97,0.00,,,0.00,Wunderground v.1.15,2013-06-27 13:34:00,
2013-06-27 09:35:00,73.3,72.4,29.84,West,279,0.0,1.0,97,0.00,,,0.00,Wunderground v.1.15,2013-06-27 13:35:00,
2013-06-27 09:36:00,81.8,73.9,29.81,WNW,284,0.0,0.0,77,0.00,,,0.00,Wunderground v.1.15,2013-06-27 13:36:00,
2013-06-27 09:37:00,81.8,74.3,29.81,WNW,284,0.0,0.0,78,0.00,,,0.00,Wunderground v.1.15,2013-06-27 13:37:00,
2013-06-27 09:38:00,81.7,74.2,29.80,WNW,284,0.0,0.0,78,0.00,,,0.00,Wunderground v.1.15,2013-06-27 13:38:00,
2013-06-27 09:39:00,73.3,72.4,29.84,SW,228,0.0,1.0,97,0.00,,,0.00,Wunderground v.1.15,2013-06-27 13:39:00,
2013-06-27 09:40:00,73.3,72.4,29.85,SW,228,0.0,0.0,97,0.00,,,0.00,Wunderground v.1.15,2013-06-27 13:40:00,
2013-06-27 09:41:00,73.2,72.3,29.84,SW,228,0.0,0.0,97,0.00,,,0.00,Wunderground v.1.15,2013-06-27 13:41:00,
2013-06-27 09:42:00,73.2,72.3,29.84,SW,228,0.0,0.0,97,0.00,,,0.00,Wunderground v.1.15,2013-06-27 13:42:00,
2013-06-27 09:43:00,81.5,74.0,29.80,WNW,284,0.0,0.0,78,0.00,,,0.00,Wunderground v.1.15,2013-06-27 13:43:00,
2013-06-27 09:44:00,81.5,74.0,29.80,WNW,284,0.0,0.0,78,0.00,,,0.00,Wunderground v.1.15,2013-06-27 13:44:00,
2013-06-27 09:45:00,73.2,72.3,29.84,SW,231,0.0,0.0,97,0.00,,,0.00,Wunderground v.1.15,2013-06-27 13:45:00,
2013-06-27 09:46:00,81.4,74.3,29.81,WNW,284,0.0,0.0,79,0.00,,,0.00,Wunderground v.1.15,2013-06-27 13:46:00,
2013-06-27 09:48:00,73.3,72.4,29.84,WSW,243,0.0,0.0,97,0.00,,,0.00,Wunderground v.1.15,2013-06-27 13:48:00,
2013-06-27 09:49:00,73.3,72.4,29.84,WSW,243,0.0,0.0,97,0.00,,,0.00,Wunderground v.1.15,2013-06-27 13:49:00,
2013-06-27 09:50:00,81.3,74.2,29.80,WNW,284,0.0,0.0,79,0.00,,,0.00,Wunderground v.1.15,2013-06-27 13:50:00,
2013-06-27 09:51:00,73.3,72.4,29.85,WSW,243,0.0,0.0,97,0.00,,,0.00,Wunderground v.1.15,2013-06-27 13:51:00,
2013-06-27 09:52:00,81.2,74.1,29.80,WNW,284,0.0,0.0,79,0.00,,,0.00,Wunderground v.1.15,2013-06-27 13:52:00,
2013-06-27 09:53:00,73.3,72.4,29.85,WSW,242,0.0,0.0,97,0.00,,,0.00,Wunderground v.1.15,2013-06-27 13:53:00,
2013-06-27 09:54:00,73.3,72.4,29.85,West,260,0.0,0.0,97,0.00,,,0.00,Wunderground v.1.15,2013-06-27 13:54:00,
2013-06-27 09:55:00,81.1,74.0,29.81,WNW,284,0.0,0.0,79,0.00,,,0.00,Wunderground v.1.15,2013-06-27 13:55:00,
2013-06-27 09:56:00,73.3,72.4,29.85,West,260,0.0,0.0,97,0.00,,,0.00,Wunderground v.1.15,2013-06-27 13:56:00,
2013-06-27 09:57:00,81.1,74.0,29.80,WNW,284,0.0,0.0,79,0.00,,,0.00,Wunderground v.1.15,2013-06-27 13:57:00,
2013-06-27 09:58:00,81.0,73.9,29.80,WNW,284,0.0,0.0,79,0.00,,,0.00,Wunderground v.1.15,2013-06-27 13:58:00,
2013-06-27 09:59:00,81.0,73.9,29.80,WNW,284,0.0,0.0,79,0.00,,,0.00,Wunderground v.1.15,2013-06-27 13:59:00,
2013-06-27 10:00:00,81.0,73.9,29.80,WNW,284,0.0,0.0,79,0.00,,,0.00,Wunderground v.1.15,2013-06-27 14:00:00,
2013-06-27 10:01:00,73.4,72.5,29.84,SW,234,0.0,0.0,97,0.00,,,0.00,Wunderground v.1.15,2013-06-27 14:01:00,
2013-06-27 10:02:00,73.4,72.5,29.84,SW,234,0.0,0.0,97,0.00,,,0.00,Wunderground v.1.15,2013-06-27 14:02:00,
2013-06-27 10:04:00,73.5,72.6,29.84,WSW,250,0.0,0.0,97,0.00,,,0.00,Wunderground v.1.15,2013-06-27 14:04:00,
2013-06-27 10:05:00,80.8,73.7,29.80,WNW,284,0.0,0.0,79,0.00,,,0.00,Wunderground v.1.15,2013-06-27 14:05:00,
2013-06-27 10:06:00,73.5,72.6,29.84,WSW,242,0.0,0.0,97,0.00,,,0.00,Wunderground v.1.15,2013-06-27 14:06:00,
2013-06-27 10:07:00,80.7,73.6,29.80,WNW,284,0.0,0.0,79,0.00,,,0.00,Wunderground v.1.15,2013-06-27 14:07:00,
2013-06-27 10:08:00,73.5,72.6,29.84,WSW,242,0.0,0.0,97,0.00,,,0.00,Wunderground v.1.15,2013-06-27 14:08:00,
2013-06-27 10:09:00,73.5,72.6,29.84,WSW,242,0.0,0.0,97,0.00,,,0.00,Wunderground v.1.15,2013-06-27 14:09:00,
2013-06-27 10:10:00,73.5,72.6,29.84,SW,229,0.0,1.0,97,0.00,,,0.00,Wunderground v.1.15,2013-06-27 14:10:00,
2013-06-27 10:11:00,80.6,73.9,29.80,WNW,284,0.0,0.0,80,0.00,,,0.00,Wunderground v.1.15,2013-06-27 14:11:00,
2013-06-27 10:12:00,73.6,72.7,29.84,SW,229,0.0,1.0,97,0.00,,,0.00,Wunderground v.1.15,2013-06-27 14:12:00,
2013-06-27 10:13:00,80.4,73.7,29.80,WNW,284,0.0,0.0,80,0.00,,,0.00,Wunderground v.1.15,2013-06-27 14:13:00,
2013-06-27 10:14:00,73.7,72.8,29.84,SW,229,0.0,1.0,97,0.00,,,0.00,Wunderground v.1.15,2013-06-27 14:14:00,
2013-06-27 10:15:00,73.7,72.8,29.84,SW,229,0.0,1.0,97,0.00,,,0.00,Wunderground v.1.15,2013-06-27 14:15:00,
2013-06-27 10:16:00,80.2,73.8,29.80,WNW,284,0.0,0.0,81,0.00,,,0.00,Wunderground v.1.15,2013-06-27 14:16:00,
2013-06-27 10:17:00,80.2,73.8,29.80,WNW,284,0.0,0.0,81,0.00,,,0.00,Wunderground v.1.15,2013-06-27 14:17:00,
2013-06-27 10:18:00,73.7,72.8,29.84,SW,229,0.0,1.0,97,0.00,,,0.00,Wunderground v.1.15,2013-06-27 14:18:00,
2013-06-27 10:19:00,73.7,72.8,29.84,South,179,0.0,2.0,97,0.00,,,0.00,Wunderground v.1.15,2013-06-27 14:19:00,
2013-06-27 10:20:00,79.9,73.9,29.79,WNW,284,0.0,0.0,82,0.00,,,0.00,Wunderground v.1.15,2013-06-27 14:20:00,
2013-06-27 10:21:00,73.7,72.8,29.84,SW,224,0.0,0.0,97,0.00,,,0.00,Wunderground v.1.15,2013-06-27 14:21:00,
2013-06-27 10:22:00,73.7,72.8,29.84,South,184,0.0,2.0,97,0.00,,,0.00,Wunderground v.1.15,2013-06-27 14:22:00,
2013-06-27 10:23:00,79.7,73.7,29.79,WNW,284,0.0,0.0,82,0.00,,,0.00,Wunderground v.1.15,2013-06-27 14:23:00,
2013-06-27 10:24:00,79.6,73.6,29.79,WNW,284,0.0,0.0,82,0.00,,,0.00,Wunderground v.1.15,2013-06-27 14:24:00,
2013-06-27 10:25:00,79.4,73.8,29.79,WNW,284,0.0,0.0,83,0.00,,,0.00,Wunderground v.1.15,2013-06-27 14:25:00,
2013-06-27 10:26:00,73.7,72.8,29.84,South,186,0.0,2.0,97,0.00,,,0.00,Wunderground v.1.15,2013-06-27 14:26:00,
2013-06-27 10:27:00,73.8,72.9,29.84,South,186,0.0,2.0,97,0.00,,,0.00,Wunderground v.1.15,2013-06-27 14:27:00,
2013-06-27 10:28:00,79.2,73.6,29.79,WNW,284,0.0,0.0,83,0.00,,,0.00,Wunderground v.1.15,2013-06-27 14:28:00,
2013-06-27 10:29:00,73.8,72.9,29.84,SW,235,1.0,2.0,97,0.00,,,0.00,Wunderground v.1.15,2013-06-27 14:29:00,
2013-06-27 10:30:00,73.8,72.9,29.84,South,171,1.0,1.0,97,0.00,,,0.00,Wunderground v.1.15,2013-06-27 14:30:00,
2013-06-27 10:31:00,73.8,72.9,29.84,South,171,1.0,1.0,97,0.00,,,0.00,Wunderground v.1.15,2013-06-27 14:31:00,
2013-06-27 10:32:00,73.8,72.9,29.84,South,171,0.0,1.0,97,0.00,,,0.00,Wunderground v.1.15,2013-06-27 14:32:00,
2013-06-27 10:33:00,78.9,73.7,29.79,WNW,284,0.0,0.0,84,0.00,,,0.00,Wunderground v.1.15,2013-06-27 14:33:00,
2013-06-27 10:34:00,78.8,73.6,29.79,WNW,284,0.0,0.0,84,0.00,,,0.00,Wunderground v.1.15,2013-06-27 14:34:00,
2013-06-27 10:35:00,78.7,73.5,29.79,WNW,284,0.0,0.0,84,0.00,,,0.00,Wunderground v.1.15,2013-06-27 14:35:00,
2013-06-27 10:36:00,73.9,73.0,29.84,South,188,0.0,1.0,97,0.00,,,0.00,Wunderground v.1.15,2013-06-27 14:36:00,
2013-06-27 10:37:00,73.9,73.0,29.84,South,188,0.0,1.0,97,0.00,,,0.00,Wunderground v.1.15,2013-06-27 14:37:00,
2013-06-27 10:38:00,73.9,73.0,29.84,South,188,0.0,1.0,97,0.00,,,0.00,Wunderground v.1.15,2013-06-27 14:38:00,
2013-06-27 10:39:00,78.5,73.3,29.79,WNW,284,0.0,0.0,84,0.00,,,0.00,Wunderground v.1.15,2013-06-27 14:39:00,
2013-06-27 10:40:00,74.0,73.1,29.84,South,188,0.0,0.0,97,0.00,,,0.00,Wunderground v.1.15,2013-06-27 14:40:00,
2013-06-27 10:41:00,78.4,73.2,29.79,WNW,284,0.0,0.0,84,0.00,,,0.00,Wunderground v.1.15,2013-06-27 14:41:00,
2013-06-27 10:42:00,78.4,73.5,29.79,WNW,284,0.0,0.0,85,0.00,,,0.00,Wunderground v.1.15,2013-06-27 14:42:00,
2013-06-27 10:43:00,74.2,73.3,29.84,South,188,0.0,0.0,97,0.00,,,0.00,Wunderground v.1.15,2013-06-27 14:43:00,
2013-06-27 10:44:00,74.2,73.3,29.84,South,188,0.0,0.0,97,0.00,,,0.00,Wunderground v.1.15,2013-06-27 14:44:00,
2013-06-27 10:45:00,74.2,73.3,29.85,South,188,0.0,0.0,97,0.00,,,0.00,Wunderground v.1.15,2013-06-27 14:45:00,
2013-06-27 10:46:00,78.3,73.4,29.79,WNW,284,0.0,0.0,85,0.00,,,0.00,Wunderground v.1.15,2013-06-27 14:46:00,
2013-06-27 10:47:00,74.2,73.3,29.84,South,188,0.0,0.0,97,0.00,,,0.00,Wunderground v.1.15,2013-06-27 14:47:00,
2013-06-27 10:48:00,74.2,73.3,29.84,South,188,0.0,0.0,97,0.00,,,0.00,Wunderground v.1.15,2013-06-27 14:48:00,
2013-06-27 10:49:00,78.2,73.3,29.79,WNW,284,0.0,0.0,85,0.00,,,0.00,Wunderground v.1.15,2013-06-27 14:49:00,
2013-06-27 10:50:00,78.2,73.3,29.79,WNW,284,0.0,0.0,85,0.00,,,0.00,Wunderground v.1.15,2013-06-27 14:50:00,
2013-06-27 10:51:00,74.2,73.3,29.84,WSW,257,0.0,0.0,97,0.00,,,0.00,Wunderground v.1.15,2013-06-27 14:51:00,
2013-06-27 10:52:00,74.2,73.3,29.84,WSW,257,0.0,0.0,97,0.00,,,0.00,Wunderground v.1.15,2013-06-27 14:52:00,
2013-06-27 10:53:00,74.2,73.3,29.84,WSW,257,0.0,0.0,97,0.00,,,0.00,Wunderground v.1.15,2013-06-27 14:53:00,
2013-06-27 10:54:00,78.2,73.3,29.79,WNW,284,0.0,0.0,85,0.00,,,0.00,Wunderground v.1.15,2013-06-27 14:54:00,
2013-06-27 10:55:00,78.1,73.2,29.79,WNW,284,0.0,0.0,85,0.00,,,0.00,Wunderground v.1.15,2013-06-27 14:55:00,
2013-06-27 10:57:00,74.5,73.6,29.84,WSW,257,0.0,0.0,97,0.00,,,0.00,Wunderground v.1.15,2013-06-27 14:57:00,
2013-06-27 10:58:00,74.6,73.7,29.84,WSW,257,0.0,0.0,97,0.00,,,0.00,Wunderground v.1.15,2013-06-27 14:58:00,
2013-06-27 10:59:00,74.7,73.8,29.84,WSW,257,0.0,0.0,97,0.00,,,0.00,Wunderground v.1.15,2013-06-27 14:59:00,
2013-06-27 11:00:00,77.9,73.0,29.79,WNW,284,0.0,0.0,85,0.00,,,0.00,Wunderground v.1.15,2013-06-27 15:00:00,
2013-06-27 11:01:00,74.7,73.8,29.84,WSW,257,0.0,0.0,97,0.00,,,0.00,Wunderground v.1.15,2013-06-27 15:01:00,
2013-06-27 11:02:00,74.7,73.8,29.84,WSW,257,0.0,0.0,97,0.00,,,0.00,Wunderground v.1.15,2013-06-27 15:02:00,
2013-06-27 11:03:00,77.8,72.9,29.80,WNW,284,0.0,0.0,85,0.00,,,0.00,Wunderground v.1.15,2013-06-27 15:03:00,
2013-06-27 11:04:00,77.8,72.9,29.80,WNW,284,0.0,0.0,85,0.00,,,0.00,Wunderground v.1.15,2013-06-27 15:04:00,
2013-06-27 11:05:00,74.8,73.9,29.84,SSW,213,0.0,0.0,97,0.00,,,0.00,Wunderground v.1.15,2013-06-27 15:05:00,
2013-06-27 11:06:00,74.8,73.9,29.84,SW,227,0.0,0.0,97,0.00,,,0.00,Wunderground v.1.15,2013-06-27 15:06:00,
2013-06-27 11:07:00,74.9,74.0,29.84,SW,227,0.0,0.0,97,0.00,,,0.00,Wunderground v.1.15,2013-06-27 15:07:00,
2013-06-27 11:08:00,77.7,72.8,29.79,WNW,284,0.0,0.0,85,0.00,,,0.00,Wunderground v.1.15,2013-06-27 15:08:00,
2013-06-27 11:09:00,75.0,74.1,29.84,South,189,0.0,2.0,97,0.00,,,0.00,Wunderground v.1.15,2013-06-27 15:09:00,
2013-06-27 11:10:00,75.0,74.1,29.84,South,189,0.0,0.0,97,0.00,,,0.00,Wunderground v.1.15,2013-06-27 15:10:00,
2013-06-27 11:11:00,77.6,73.1,29.79,WNW,284,0.0,0.0,86,0.00,,,0.00,Wunderground v.1.15,2013-06-27 15:11:00,
2013-06-27 11:12:00,77.6,73.1,29.79,WNW,284,0.0,0.0,86,0.00,,,0.00,Wunderground v.1.15,2013-06-27 15:12:00,
2013-06-27 11:13:00,75.1,74.2,29.84,SSW,200,1.0,2.0,97,0.00,,,0.00,Wunderground v.1.15,2013-06-27 15:13:00,
2013-06-27 11:14:00,75.2,74.3,29.84,SW,235,1.0,2.0,97,0.00,,,0.00,Wunderground v.1.15,2013-06-27 15:14:00,
2013-06-27 11:15:00,77.4,72.9,29.79,WNW,284,0.0,0.0,86,0.00,,,0.00,Wunderground v.1.15,2013-06-27 15:15:00,
2013-06-27 11:18:00,75.2,74.3,29.84,South,185,1.0,2.0,97,0.00,,,0.00,Wunderground v.1.15,2013-06-27 15:18:00,
2013-06-27 11:19:00,75.2,74.3,29.84,SW,229,1.0,2.0,97,0.00,,,0.00,Wunderground v.1.15,2013-06-27 15:19:00,
2013-06-27 11:20:00,75.2,74.3,29.84,South,188,1.0,1.0,97,0.00,,,0.00,Wunderground v.1.15,2013-06-27 15:20:00,
2013-06-27 11:21:00,77.2,72.7,29.79,WNW,284,0.0,0.0,86,0.00,,,0.00,Wunderground v.1.15,2013-06-27 15:21:00,
2013-06-27 11:22:00,75.2,74.3,29.84,SSW,201,1.0,2.0,97,0.00,,,0.00,Wunderground v.1.15,2013-06-27 15:22:00,
2013-06-27 11:23:00,77.2,72.7,29.79,WNW,284,0.0,0.0,86,0.00,,,0.00,Wunderground v.1.15,2013-06-27 15:23:00,
2013-06-27 11:24:00,75.2,74.3,29.84,SSW,201,1.0,2.0,97,0.00,,,0.00,Wunderground v.1.15,2013-06-27 15:24:00,
2013-06-27 11:25:00,75.3,74.4,29.84,SSW,201,0.0,2.0,97,0.00,,,0.00,Wunderground v.1.15,2013-06-27 15:25:00,
2013-06-27 11:26:00,77.1,72.6,29.79,WNW,284,0.0,0.0,86,0.00,,,0.00,Wunderground v.1.15,2013-06-27 15:26:00,
2013-06-27 11:27:00,77.1,72.6,29.79,WNW,284,0.0,0.0,86,0.00,,,0.00,Wunderground v.1.15,2013-06-27 15:27:00,
2013-06-27 11:28:00,75.4,74.5,29.84,SW,232,1.0,3.0,97,0.00,,,0.00,Wunderground v.1.15,2013-06-27 15:28:00,
2013-06-27 11:29:00,75.4,74.5,29.84,SW,215,1.0,3.0,97,0.00,,,0.00,Wunderground v.1.15,2013-06-27 15:29:00,
2013-06-27 11:31:00,75.6,74.7,29.84,SW,215,1.0,1.0,97,0.00,,,0.00,Wunderground v.1.15,2013-06-27 15:31:00,
2013-06-27 11:32:00,75.7,74.8,29.84,West,267,1.0,1.0,97,0.00,,,0.00,Wunderground v.1.15,2013-06-27 15:32:00,
2013-06-27 11:33:00,75.8,74.9,29.84,West,267,1.0,1.0,97,0.00,,,0.00,Wunderground v.1.15,2013-06-27 15:33:00,
2013-06-27 11:34:00,76.9,72.4,29.79,West,261,0.0,0.0,86,0.00,,,0.00,Wunderground v.1.15,2013-06-27 15:34:00,
2013-06-27 11:35:00,76.8,72.3,29.79,West,261,0.0,0.0,86,0.00,,,0.00,Wunderground v.1.15,2013-06-27 15:35:00,
2013-06-27 11:37:00,75.9,75.0,29.84,WSW,252,1.0,3.0,97,0.00,,,0.00,Wunderground v.1.15,2013-06-27 15:37:00,
2013-06-27 11:38:00,76.0,75.1,29.84,NW,315,1.0,3.0,97,0.00,,,0.00,Wunderground v.1.15,2013-06-27 15:38:00,
2013-06-27 11:39:00,76.8,72.3,29.79,West,261,0.0,0.0,86,0.00,,,0.00,Wunderground v.1.15,2013-06-27 15:39:00,
2013-06-27 11:40:00,76.0,75.1,29.84,NW,315,1.0,1.0,97,0.00,,,0.00,Wunderground v.1.15,2013-06-27 15:40:00,
2013-06-27 11:42:00,76.1,75.2,29.84,NW,315,1.0,1.0,97,0.00,,,0.00,Wunderground v.1.15,2013-06-27 15:42:00,
2013-06-27 11:43:00,76.7,72.2,29.79,West,261,0.0,0.0,86,0.00,,,0.00,Wunderground v.1.15,2013-06-27 15:43:00,
2013-06-27 11:44:00,76.2,75.3,29.84,NW,313,0.0,1.0,97,0.00,,,0.00,Wunderground v.1.15,2013-06-27 15:44:00,
2013-06-27 11:45:00,76.6,72.4,29.79,West,261,0.0,0.0,87,0.00,,,0.00,Wunderground v.1.15,2013-06-27 15:45:00,
2013-06-27 11:46:00,76.6,72.4,29.79,West,261,0.0,0.0,87,0.00,,,0.00,Wunderground v.1.15,2013-06-27 15:46:00,
2013-06-27 11:47:00,76.3,75.4,29.84,North,355,0.0,1.0,97,0.00,,,0.00,Wunderground v.1.15,2013-06-27 15:47:00,
2013-06-27 11:48:00,76.6,72.4,29.79,West,261,0.0,0.0,87,0.00,,,0.00,Wunderground v.1.15,2013-06-27 15:48:00,
2013-06-27 11:49:00,76.4,75.5,29.84,North,355,0.0,1.0,97,0.00,,,0.00,Wunderground v.1.15,2013-06-27 15:49:00,
2013-06-27 11:50:00,76.4,75.5,29.84,NNW,333,0.0,0.0,97,0.00,,,0.00,Wunderground v.1.15,2013-06-27 15:50:00,
2013-06-27 11:51:00,76.5,72.3,29.79,West,261,0.0,0.0,87,0.00,,,0.00,Wunderground v.1.15,2013-06-27 15:51:00,
2013-06-27 11:52:00,76.7,75.8,29.84,WNW,284,0.0,1.0,97,0.00,,,0.00,Wunderground v.1.15,2013-06-27 15:52:00,
2013-06-27 11:53:00,76.5,72.3,29.79,West,261,0.0,0.0,87,0.00,,,0.00,Wunderground v.1.15,2013-06-27 15:53:00,
2013-06-27 11:54:00,76.9,76.0,29.84,SSW,196,0.0,1.0,97,0.00,,,0.00,Wunderground v.1.15,2013-06-27 15:54:00,
2013-06-27 11:55:00,76.4,72.2,29.79,West,261,0.0,0.0,87,0.00,,,0.00,Wunderground v.1.15,2013-06-27 15:55:00,
2013-06-27 11:57:00,77.0,75.8,29.84,WNW,294,0.0,2.0,96,0.00,,,0.00,Wunderground v.1.15,2013-06-27 15:57:00,
2013-06-27 11:58:00,76.4,72.2,29.79,West,261,0.0,1.0,87,0.00,,,0.00,Wunderground v.1.15,2013-06-27 15:58:00,
2013-06-27 12:00:00,77.1,75.9,29.84,WSW,238,0.0,2.0,96,0.00,,,0.00,Wunderground v.1.15,2013-06-27 16:00:00,
2013-06-27 12:01:00,77.1,75.9,29.84,West,270,1.0,2.0,96,0.00,,,0.00,Wunderground v.1.15,2013-06-27 16:01:00,
2013-06-27 12:02:00,76.4,72.2,29.79,West,261,0.0,0.0,87,0.00,,,0.00,Wunderground v.1.15,2013-06-27 16:02:00,
2013-06-27 12:03:00,76.3,71.8,29.79,West,261,0.0,0.0,86,0.00,,,0.00,Wunderground v.1.15,2013-06-27 16:03:00,
2013-06-27 12:05:00,77.2,75.7,29.84,NNE,15,1.0,2.0,95,0.00,,,0.00,Wunderground v.1.15,2013-06-27 16:05:00,
2013-06-27 12:06:00,77.3,75.8,29.84,NNE,15,1.0,2.0,95,0.00,,,0.00,Wunderground v.1.15,2013-06-27 16:06:00,
2013-06-27 12:07:00,77.4,75.9,29.84,NE,45,1.0,2.0,95,0.00,,,0.00,Wunderground v.1.15,2013-06-27 16:07:00,
2013-06-27 12:08:00,77.3,75.8,29.84,NE,45,0.0,2.0,95,0.00,,,0.00,Wunderground v.1.15,2013-06-27 16:08:00,
2013-06-27 12:09:00,76.3,72.1,29.79,West,261,0.0,0.0,87,0.00,,,0.00,Wunderground v.1.15,2013-06-27 16:09:00,
2013-06-27 12:10:00,76.2,72.0,29.79,West,261,0.0,0.0,87,0.00,,,0.00,Wunderground v.1.15,2013-06-27 16:10:00,
2013-06-27 12:11:00,77.3,75.4,29.84,WNW,292,0.0,0.0,94,0.00,,,0.00,Wunderground v.1.15,2013-06-27 16:11:00,
2013-06-27 12:12:00,76.2,72.0,29.79,West,261,0.0,0.0,87,0.00,,,0.00,Wunderground v.1.15,2013-06-27 16:12:00,
2013-06-27 12:13:00,76.2,72.0,29.79,West,261,0.0,0.0,87,0.00,,,0.00,Wunderground v.1.15,2013-06-27 16:13:00,
2013-06-27 12:14:00,77.4,75.2,29.84,West,279,0.0,1.0,93,0.00,,,0.00,Wunderground v.1.15,2013-06-27 16:14:00,
2013-06-27 12:15:00,76.1,71.9,29.79,West,261,0.0,0.0,87,0.00,,,0.00,Wunderground v.1.15,2013-06-27 16:15:00,
2013-06-27 12:16:00,77.5,75.3,29.84,WNW,299,1.0,1.0,93,0.00,,,0.00,Wunderground v.1.15,2013-06-27 16:16:00,
2013-06-27 12:17:00,77.6,75.4,29.84,WNW,299,1.0,1.0,93,0.00,,,0.00,Wunderground v.1.15,2013-06-27 16:17:00,
2013-06-27 12:18:00,77.6,75.4,29.84,WNW,303,1.0,1.0,93,0.00,,,0.00,Wunderground v.1.15,2013-06-27 16:18:00,
2013-06-27 12:19:00,76.0,71.8,29.79,West,261,0.0,0.0,87,0.00,,,0.00,Wunderground v.1.15,2013-06-27 16:19:00,
2013-06-27 12:20:00,75.9,71.8,29.79,West,261,0.0,0.0,87,0.00,,,0.00,Wunderground v.1.15,2013-06-27 16:20:00,
2013-06-27 12:21:00,78.0,75.8,29.84,SW,235,1.0,4.0,93,0.00,,,0.00,Wunderground v.1.15,2013-06-27 16:21:00,
2013-06-27 12:22:00,75.9,71.8,29.79,West,261,0.0,0.0,87,0.00,,,0.00,Wunderground v.1.15,2013-06-27 16:22:00,
2013-06-27 12:23:00,78.1,75.6,29.84,WNW,282,1.0,4.0,92,0.00,,,0.00,Wunderground v.1.15,2013-06-27 16:23:00,
2013-06-27 12:24:00,75.8,71.7,29.79,West,261,0.0,0.0,87,0.00,,,0.00,Wunderground v.1.15,2013-06-27 16:24:00,
2013-06-27 12:25:00,75.8,71.7,29.79,West,261,0.0,0.0,87,0.00,,,0.00,Wunderground v.1.15,2013-06-27 16:25:00,
2013-06-27 12:26:00,78.3,75.8,29.84,SSW,202,1.0,4.0,92,0.00,,,0.00,Wunderground v.1.15,2013-06-27 16:26:00,
2013-06-27 12:27:00,78.3,75.5,29.84,NE,34,1.0,4.0,91,0.00,,,0.00,Wunderground v.1.15,2013-06-27 16:27:00,
2013-06-27 12:28:00,78.4,75.6,29.84,West,265,1.0,4.0,91,0.00,,,0.00,Wunderground v.1.15,2013-06-27 16:28:00,
2013-06-27 12:30:00,78.5,75.7,29.84,SW,218,1.0,1.0,91,0.00,,,0.00,Wunderground v.1.15,2013-06-27 16:30:00,
2013-06-27 12:31:00,75.7,71.9,29.79,WSW,256,0.0,0.0,88,0.00,,,0.00,Wunderground v.1.15,2013-06-27 16:31:00,
2013-06-27 12:32:00,75.6,71.8,29.79,WSW,256,0.0,0.0,88,0.00,,,0.00,Wunderground v.1.15,2013-06-27 16:32:00,
2013-06-27 12:33:00,78.8,76.3,29.84,WSW,244,0.0,1.0,92,0.00,,,0.00,Wunderground v.1.15,2013-06-27 16:33:00,
2013-06-27 12:34:00,78.8,75.6,29.84,NE,56,1.0,1.0,90,0.00,,,0.00,Wunderground v.1.15,2013-06-27 16:34:00,
2013-06-27 12:35:00,75.5,71.7,29.79,WSW,256,0.0,0.0,88,0.00,,,0.00,Wunderground v.1.15,2013-06-27 16:35:00,
2013-06-27 12:36:00,75.5,71.7,29.79,WSW,256,0.0,0.0,88,0.00,,,0.00,Wunderground v.1.15,2013-06-27 16:36:00,
2013-06-27 12:37:00,75.5,71.7,29.79,WSW,256,0.0,0.0,88,0.00,,,0.00,Wunderground v.1.15,2013-06-27 16:37:00,
2013-06-27 12:38:00,75.5,71.7,29.80,WSW,256,0.0,0.0,88,0.00,,,0.00,Wunderground v.1.15,2013-06-27 16:38:00,
2013-06-27 12:39:00,79.3,76.1,29.84,NNE,24,0.0,1.0,90,0.00,,,0.00,Wunderground v.1.15,2013-06-27 16:39:00,
2013-06-27 12:40:00,75.4,71.6,29.80,WSW,256,0.0,0.0,88,0.00,,,0.00,Wunderground v.1.15,2013-06-27 16:40:00,
2013-06-27 12:41:00,75.3,71.5,29.80,WSW,256,0.0,0.0,88,0.00,,,0.00,Wunderground v.1.15,2013-06-27 16:41:00,
2013-06-27 12:42:00,79.6,76.1,29.84,ENE,66,0.0,1.0,89,0.00,,,0.00,Wunderground v.1.15,2013-06-27 16:42:00,
2013-06-27 12:43:00,79.7,76.2,29.84,South,169,0.0,1.0,89,0.00,,,0.00,Wunderground v.1.15,2013-06-27 16:43:00,
2013-06-27 12:44:00,75.2,71.4,29.80,WSW,243,0.0,0.0,88,0.00,,,0.00,Wunderground v.1.15,2013-06-27 16:44:00,
2013-06-27 12:45:00,79.9,76.0,29.84,SW,225,0.0,1.0,88,0.00,,,0.00,Wunderground v.1.15,2013-06-27 16:45:00,
2013-06-27 12:46:00,80.0,76.1,29.84,SW,220,0.0,1.0,88,0.00,,,0.00,Wunderground v.1.15,2013-06-27 16:46:00,
2013-06-27 12:47:00,75.1,71.3,29.80,WSW,256,0.0,2.0,88,0.00,,,0.00,Wunderground v.1.15,2013-06-27 16:47:00,
2013-06-27 12:48:00,75.1,71.3,29.80,WSW,256,0.0,2.0,88,0.00,,,0.00,Wunderground v.1.15,2013-06-27 16:48:00,
2013-06-27 12:49:00,80.5,76.6,29.84,West,273,1.0,1.0,88,0.00,,,0.00,Wunderground v.1.15,2013-06-27 16:49:00,
2013-06-27 12:50:00,80.6,77.1,29.84,West,273,0.0,0.0,89,0.00,,,0.00,Wunderground v.1.15,2013-06-27 16:50:00,
2013-06-27 12:51:00,80.7,77.2,29.84,West,273,0.0,0.0,89,0.00,,,0.00,Wunderground v.1.15,2013-06-27 16:51:00,
2013-06-27 12:52:00,80.8,77.3,29.84,West,268,0.0,0.0,89,0.00,,,0.00,Wunderground v.1.15,2013-06-27 16:52:00,
2013-06-27 12:53:00,75.0,71.5,29.80,SSW,207,0.0,0.0,89,0.00,,,0.00,Wunderground v.1.15,2013-06-27 16:53:00,
2013-06-27 12:54:00,74.9,71.4,29.80,SSW,207,0.0,0.0,89,0.00,,,0.00,Wunderground v.1.15,2013-06-27 16:54:00,
2013-06-27 12:55:00,74.9,71.4,29.80,SSW,207,0.0,0.0,89,0.00,,,0.00,Wunderground v.1.15,2013-06-27 16:55:00,
2013-06-27 12:56:00,81.1,76.5,29.84,West,259,0.0,1.0,86,0.00,,,0.00,Wunderground v.1.15,2013-06-27 16:56:00,
2013-06-27 12:57:00,81.1,76.5,29.84,WNW,286,1.0,1.0,86,0.00,,,0.00,Wunderground v.1.15,2013-06-27 16:57:00,
2013-06-27 12:58:00,81.1,76.5,29.84,WNW,282,1.0,1.0,86,0.00,,,0.00,Wunderground v.1.15,2013-06-27 16:58:00,
2013-06-27 12:59:00,81.1,76.5,29.84,WNW,282,1.0,1.0,86,0.00,,,0.00,Wunderground v.1.15,2013-06-27 16:59:00,
2013-06-27 13:00:00,74.8,71.3,29.80,SW,217,0.0,0.0,89,0.00,,,0.00,Wunderground v.1.15,2013-06-27 17:00:00,
2013-06-27 13:01:00,81.1,76.2,29.84,West,281,1.0,1.0,85,0.00,,,0.00,Wunderground v.1.15,2013-06-27 17:01:00,
2013-06-27 13:02:00,74.8,71.3,29.80,SW,217,0.0,0.0,89,0.00,,,0.00,Wunderground v.1.15,2013-06-27 17:02:00,
2013-06-27 13:03:00,74.8,71.3,29.80,SW,217,0.0,0.0,89,0.00,,,0.00,Wunderground v.1.15,2013-06-27 17:03:00,
2013-06-27 13:04:00,74.8,71.3,29.79,SW,217,0.0,0.0,89,0.00,,,0.00,Wunderground v.1.15,2013-06-27 17:04:00,
2013-06-27 13:05:00,81.0,76.8,29.83,WNW,298,0.0,1.0,87,0.00,,,0.00,Wunderground v.1.15,2013-06-27 17:05:00,
2013-06-27 13:06:00,81.0,76.8,29.83,WNW,298,0.0,1.0,87,0.00,,,0.00,Wunderground v.1.15,2013-06-27 17:06:00,
2013-06-27 13:07:00,81.0,76.8,29.83,WNW,298,0.0,1.0,87,0.00,,,0.00,Wunderground v.1.15,2013-06-27 17:07:00,
2013-06-27 13:08:00,74.7,71.2,29.79,SW,217,0.0,0.0,89,0.00,,,0.00,Wunderground v.1.15,2013-06-27 17:08:00,
2013-06-27 13:09:00,81.0,76.4,29.83,WNW,300,0.0,1.0,86,0.00,,,0.00,Wunderground v.1.15,2013-06-27 17:09:00,
2013-06-27 13:10:00,74.7,71.2,29.79,SW,218,0.0,0.0,89,0.00,,,0.00,Wunderground v.1.15,2013-06-27 17:10:00,
2013-06-27 13:11:00,81.2,77.0,29.83,North,355,0.0,1.0,87,0.00,,,0.00,Wunderground v.1.15,2013-06-27 17:11:00,
2013-06-27 13:12:00,81.3,76.7,29.83,NNE,32,0.0,1.0,86,0.00,,,0.00,Wunderground v.1.15,2013-06-27 17:12:00,
2013-06-27 13:13:00,74.6,71.1,29.79,SW,218,0.0,0.0,89,0.00,,,0.00,Wunderground v.1.15,2013-06-27 17:13:00,
2013-06-27 13:14:00,81.4,76.5,29.83,NE,46,0.0,1.0,85,0.00,,,0.00,Wunderground v.1.15,2013-06-27 17:14:00,
2013-06-27 13:15:00,81.5,76.2,29.83,WNW,290,0.0,1.0,84,0.00,,,0.00,Wunderground v.1.15,2013-06-27 17:15:00,
2013-06-27 13:16:00,74.6,71.1,29.79,SW,218,0.0,0.0,89,0.00,,,0.00,Wunderground v.1.15,2013-06-27 17:16:00,
2013-06-27 13:17:00,74.6,71.1,29.80,SW,218,0.0,0.0,89,0.00,,,0.00,Wunderground v.1.15,2013-06-27 17:17:00,
2013-06-27 13:18:00,81.8,76.5,29.83,WNW,290,0.0,1.0,84,0.00,,,0.00,Wunderground v.1.15,2013-06-27 17:18:00,
2013-06-27 13:19:00,74.5,71.0,29.80,SW,219,0.0,1.0,89,0.00,,,0.00,Wunderground v.1.15,2013-06-27 17:19:00,
2013-06-27 13:20:00,74.5,71.0,29.80,SW,219,0.0,0.0,89,0.00,,,0.00,Wunderground v.1.15,2013-06-27 17:20:00,
2013-06-27 13:21:00,81.9,76.9,29.83,WNW,290,0.0,1.0,85,0.00,,,0.00,Wunderground v.1.15,2013-06-27 17:21:00,
2013-06-27 13:22:00,74.4,70.9,29.79,SW,219,0.0,0.0,89,0.00,,,0.00,Wunderground v.1.15,2013-06-27 17:22:00,
2013-06-27 13:23:00,81.9,76.2,29.83,WNW,291,0.0,1.0,83,0.00,,,0.00,Wunderground v.1.15,2013-06-27 17:23:00,
2013-06-27 13:24:00,74.4,70.9,29.80,SW,219,0.0,0.0,89,0.00,,,0.00,Wunderground v.1.15,2013-06-27 17:24:00,
2013-06-27 13:25:00,82.1,76.8,29.83,WNW,291,0.0,1.0,84,0.00,,,0.00,Wunderground v.1.15,2013-06-27 17:25:00,
2013-06-27 13:26:00,82.3,77.0,29.84,WNW,291,0.0,1.0,84,0.00,,,0.00,Wunderground v.1.15,2013-06-27 17:26:00,
2013-06-27 13:27:00,74.4,71.3,29.80,SW,219,0.0,0.0,90,0.00,,,0.00,Wunderground v.1.15,2013-06-27 17:27:00,
2013-06-27 13:28:00,74.3,71.2,29.80,WSW,242,0.0,0.0,90,0.00,,,0.00,Wunderground v.1.15,2013-06-27 17:28:00,
2013-06-27 13:29:00,82.6,77.3,29.84,NNW,340,1.0,2.0,84,0.00,,,0.00,Wunderground v.1.15,2013-06-27 17:29:00,
2013-06-27 13:30:00,74.3,71.2,29.79,WSW,242,0.0,0.0,90,0.00,,,0.00,Wunderground v.1.15,2013-06-27 17:30:00,
2013-06-27 13:31:00,82.8,77.5,29.84,NW,325,1.0,2.0,84,0.00,,,0.00,Wunderground v.1.15,2013-06-27 17:31:00,
2013-06-27 13:32:00,82.8,77.1,29.84,West,273,1.0,2.0,83,0.00,,,0.00,Wunderground v.1.15,2013-06-27 17:32:00,
2013-06-27 13:33:00,74.2,71.1,29.79,SW,226,0.0,0.0,90,0.00,,,0.00,Wunderground v.1.15,2013-06-27 17:33:00,
2013-06-27 13:34:00,74.2,71.1,29.79,SSW,194,0.0,0.0,90,0.00,,,0.00,Wunderground v.1.15,2013-06-27 17:34:00,
2013-06-27 13:35:00,83.1,76.7,29.84,West,279,1.0,4.0,81,0.00,,,0.00,Wunderground v.1.15,2013-06-27 17:35:00,
2013-06-27 13:36:00,83.2,77.1,29.84,West,281,1.0,4.0,82,0.00,,,0.00,Wunderground v.1.15,2013-06-27 17:36:00,
2013-06-27 13:37:00,83.3,76.9,29.84,West,267,1.0,4.0,81,0.00,,,0.00,Wunderground v.1.15,2013-06-27 17:37:00,
2013-06-27 13:38:00,83.5,77.4,29.84,NNE,29,1.0,4.0,82,0.00,,,0.00,Wunderground v.1.15,2013-06-27 17:38:00,
2013-06-27 13:39:00,74.2,71.1,29.78,SSW,205,0.0,1.0,90,0.00,,,0.00,Wunderground v.1.15,2013-06-27 17:39:00,
2013-06-27 13:40:00,74.1,71.0,29.78,SSW,205,0.0,0.0,90,0.00,,,0.00,Wunderground v.1.15,2013-06-27 17:40:00,
2013-06-27 13:41:00,83.7,76.9,29.84,NW,310,2.0,2.0,80,0.00,,,0.00,Wunderground v.1.15,2013-06-27 17:41:00,
2013-06-27 13:42:00,74.1,71.0,29.78,SSW,205,0.0,0.0,90,0.00,,,0.00,Wunderground v.1.15,2013-06-27 17:42:00,
2013-06-27 13:43:00,74.1,71.0,29.78,SSW,205,0.0,0.0,90,0.00,,,0.00,Wunderground v.1.15,2013-06-27 17:43:00,
2013-06-27 13:44:00,84.0,77.2,29.84,NW,321,1.0,2.0,80,0.00,,,0.00,Wunderground v.1.15,2013-06-27 17:44:00,
2013-06-27 13:45:00,74.1,71.0,29.78,South,188,0.0,0.0,90,0.00,,,0.00,Wunderground v.1.15,2013-06-27 17:45:00,
2013-06-27 13:46:00,74.1,71.0,29.78,South,190,0.0,1.0,90,0.00,,,0.00,Wunderground v.1.15,2013-06-27 17:46:00,
2013-06-27 13:47:00,84.3,77.5,29.84,SW,232,1.0,2.0,80,0.00,,,0.00,Wunderground v.1.15,2013-06-27 17:47:00,
2013-06-27 13:48:00,74.1,71.0,29.78,SW,223,0.0,1.0,90,0.00,,,0.00,Wunderground v.1.15,2013-06-27 17:48:00,
2013-06-27 13:49:00,74.1,71.0,29.78,WSW,239,0.0,1.0,90,0.00,,,0.00,Wunderground v.1.15,2013-06-27 17:49:00,
2013-06-27 13:50:00,84.2,76.2,29.84,SW,225,1.0,2.0,77,0.00,,,0.00,Wunderground v.1.15,2013-06-27 17:50:00,
2013-06-27 13:51:00,74.0,70.9,29.78,SW,230,0.0,0.0,90,0.00,,,0.00,Wunderground v.1.15,2013-06-27 17:51:00,
2013-06-27 13:52:00,84.5,77.3,29.84,ESE,114,1.0,2.0,79,0.00,,,0.00,Wunderground v.1.15,2013-06-27 17:52:00,
2013-06-27 13:53:00,74.0,70.9,29.78,SW,236,0.0,1.0,90,0.00,,,0.00,Wunderground v.1.15,2013-06-27 17:53:00,
2013-06-27 13:54:00,74.0,70.9,29.79,SW,229,0.0,1.0,90,0.00,,,0.00,Wunderground v.1.15,2013-06-27 17:54:00,
2013-06-27 13:55:00,84.7,77.1,29.84,West,267,1.0,2.0,78,0.00,,,0.00,Wunderground v.1.15,2013-06-27 17:55:00,
2013-06-27 13:56:00,74.0,70.9,29.79,SSW,194,0.0,2.0,90,0.00,,,0.00,Wunderground v.1.15,2013-06-27 17:56:00,
2013-06-27 13:57:00,73.9,70.8,29.79,WSW,239,0.0,2.0,90,0.00,,,0.00,Wunderground v.1.15,2013-06-27 17:57:00,
2013-06-27 13:58:00,84.6,77.4,29.84,West,268,1.0,2.0,79,0.00,,,0.00,Wunderground v.1.15,2013-06-27 17:58:00,
2013-06-27 13:59:00,84.5,76.9,29.84,West,268,1.0,2.0,78,0.00,,,0.00,Wunderground v.1.15,2013-06-27 17:59:00,
2013-06-27 14:00:00,73.9,70.8,29.79,SW,236,0.0,1.0,90,0.00,,,0.00,Wunderground v.1.15,2013-06-27 18:00:00,
2013-06-27 14:01:00,84.2,75.4,29.83,West,277,1.0,1.0,75,0.00,,,0.00,Wunderground v.1.15,2013-06-27 18:01:00,
2013-06-27 14:02:00,73.9,70.8,29.79,SW,226,0.0,1.0,90,0.00,,,0.00,Wunderground v.1.15,2013-06-27 18:02:00,
2013-06-27 14:03:00,73.9,70.8,29.79,SW,226,0.0,1.0,90,0.00,,,0.00,Wunderground v.1.15,2013-06-27 18:03:00,
2013-06-27 14:04:00,84.2,76.2,29.83,NW,309,1.0,1.0,77,0.00,,,0.00,Wunderground v.1.15,2013-06-27 18:04:00,
2013-06-27 14:05:00,84.3,75.9,29.83,NNE,19,1.0,1.0,76,0.00,,,0.00,Wunderground v.1.15,2013-06-27 18:05:00,
2013-06-27 14:06:00,73.9,70.8,29.79,SW,221,0.0,1.0,90,0.00,,,0.00,Wunderground v.1.15,2013-06-27 18:06:00,
2013-06-27 14:07:00,73.9,70.8,29.79,SW,223,0.0,1.0,90,0.00,,,0.00,Wunderground v.1.15,2013-06-27 18:07:00,
2013-06-27 14:08:00,84.8,76.8,29.83,West,266,1.0,5.0,77,0.00,,,0.00,Wunderground v.1.15,2013-06-27 18:08:00,
2013-06-27 14:09:00,73.9,70.8,29.79,WSW,254,0.0,1.0,90,0.00,,,0.00,Wunderground v.1.15,2013-06-27 18:09:00,
2013-06-27 14:10:00,73.8,70.7,29.79,SSW,203,0.0,0.0,90,0.00,,,0.00,Wunderground v.1.15,2013-06-27 18:10:00,
2013-06-27 14:11:00,85.3,77.3,29.83,West,265,1.0,1.0,77,0.00,,,0.00,Wunderground v.1.15,2013-06-27 18:11:00,
2013-06-27 14:12:00,85.3,76.9,29.83,West,279,1.0,1.0,76,0.00,,,0.00,Wunderground v.1.15,2013-06-27 18:12:00,
2013-06-27 14:13:00,73.7,70.6,29.79,SSW,204,0.0,0.0,90,0.00,,,0.00,Wunderground v.1.15,2013-06-27 18:13:00,
2013-06-27 14:14:00,85.4,77.0,29.83,West,277,0.0,1.0,76,0.00,,,0.00,Wunderground v.1.15,2013-06-27 18:14:00,
2013-06-27 14:15:00,73.7,70.6,29.79,SW,219,0.0,0.0,90,0.00,,,0.00,Wunderground v.1.15,2013-06-27 18:15:00,
2013-06-27 14:16:00,85.4,76.2,29.83,NNW,333,0.0,1.0,74,0.00,,,0.00,Wunderground v.1.15,2013-06-27 18:16:00,
2013-06-27 14:17:00,85.3,76.5,29.83,NNW,333,0.0,1.0,75,0.00,,,0.00,Wunderground v.1.15,2013-06-27 18:17:00,
2013-06-27 14:18:00,85.2,76.4,29.83,WNW,284,0.0,1.0,75,0.00,,,0.00,Wunderground v.1.15,2013-06-27 18:18:00,
2013-06-27 14:19:00,73.6,70.5,29.78,SW,225,0.0,0.0,90,0.00,,,0.00,Wunderground v.1.15,2013-06-27 18:19:00,
2013-06-27 14:20:00,73.6,70.5,29.78,SW,225,0.0,1.0,90,0.00,,,0.00,Wunderground v.1.15,2013-06-27 18:20:00,
2013-06-27 14:21:00,73.6,70.5,29.78,SW,216,0.0,1.0,90,0.00,,,0.00,Wunderground v.1.15,2013-06-27 18:21:00,
2013-06-27 14:22:00,84.7,76.3,29.83,West,279,0.0,0.0,76,0.00,,,0.00,Wunderground v.1.15,2013-06-27 18:22:00,
2013-06-27 14:23:00,84.6,76.2,29.83,West,279,0.0,1.0,76,0.00,,,0.00,Wunderground v.1.15,2013-06-27 18:23:00,
2013-06-27 14:24:00,73.6,70.5,29.79,South,191,0.0,2.0,90,0.00,,,0.00,Wunderground v.1.15,2013-06-27 18:24:00,
2013-06-27 14:25:00,84.6,76.6,29.83,West,280,0.0,1.0,77,0.00,,,0.00,Wunderground v.1.15,2013-06-27 18:25:00,
2013-06-27 14:26:00,73.5,70.4,29.79,SSW,192,0.0,2.0,90,0.00,,,0.00,Wunderground v.1.15,2013-06-27 18:26:00,
2013-06-27 14:27:00,73.5,70.4,29.79,SSW,192,0.0,2.0,90,0.00,,,0.00,Wunderground v.1.15,2013-06-27 18:27:00,
2013-06-27 14:28:00,73.5,70.7,29.79,SSW,192,0.0,2.0,91,0.00,,,0.00,Wunderground v.1.15,2013-06-27 18:28:00,
2013-06-27 14:29:00,84.8,76.8,29.84,NNE,26,0.0,1.0,77,0.00,,,0.00,Wunderground v.1.15,2013-06-27 18:29:00,
2013-06-27 14:30:00,84.9,76.9,29.84,NNW,330,0.0,1.0,77,0.00,,,0.00,Wunderground v.1.15,2013-06-27 18:30:00,
2013-06-27 14:31:00,85.0,77.0,29.84,NNW,340,0.0,1.0,77,0.00,,,0.00,Wunderground v.1.15,2013-06-27 18:31:00,
2013-06-27 14:33:00,73.3,70.2,29.79,WSW,244,0.0,1.0,90,0.00,,,0.00,Wunderground v.1.15,2013-06-27 18:33:00,
2013-06-27 14:34:00,73.3,70.2,29.79,West,261,0.0,1.0,90,0.00,,,0.00,Wunderground v.1.15,2013-06-27 18:34:00,
2013-06-27 14:35:00,85.3,76.5,29.84,NNW,340,0.0,1.0,75,0.00,,,0.00,Wunderground v.1.15,2013-06-27 18:35:00,
2013-06-27 14:36:00,85.3,76.5,29.84,NW,317,0.0,1.0,75,0.00,,,0.00,Wunderground v.1.15,2013-06-27 18:36:00,
2013-06-27 14:37:00,73.3,70.2,29.79,West,276,0.0,1.0,90,0.00,,,0.00,Wunderground v.1.15,2013-06-27 18:37:00,
2013-06-27 14:38:00,85.3,77.3,29.84,North,351,1.0,6.0,77,0.00,,,0.00,Wunderground v.1.15,2013-06-27 18:38:00,
2013-06-27 14:39:00,85.2,76.0,29.84,North,9,1.0,6.0,74,0.00,,,0.00,Wunderground v.1.15,2013-06-27 18:39:00,
2013-06-27 14:40:00,73.2,70.1,29.79,West,276,0.0,0.0,90,0.00,,,0.00,Wunderground v.1.15,2013-06-27 18:40:00,
2013-06-27 14:43:00,85.4,77.4,29.83,North,5,1.0,2.0,77,0.00,,,0.00,Wunderground v.1.15,2013-06-27 18:43:00,
2013-06-27 14:44:00,85.5,76.7,29.83,WNW,295,1.0,2.0,75,0.00,,,0.00,Wunderground v.1.15,2013-06-27 18:44:00,
2013-06-27 14:45:00,73.2,70.1,29.79,WSW,254,0.0,0.0,90,0.00,,,0.00,Wunderground v.1.15,2013-06-27 18:45:00,
2013-06-27 14:46:00,85.7,77.3,29.83,WSW,244,1.0,3.0,76,0.00,,,0.00,Wunderground v.1.15,2013-06-27 18:46:00,
2013-06-27 14:48:00,85.9,76.6,29.83,WNW,298,1.0,3.0,74,0.00,,,0.00,Wunderground v.1.15,2013-06-27 18:48:00,
2013-06-27 14:49:00,73.1,70.0,29.79,WSW,254,0.0,0.0,90,0.00,,,0.00,Wunderground v.1.15,2013-06-27 18:49:00,
2013-06-27 14:50:00,85.9,76.2,29.83,West,277,1.0,2.0,73,0.00,,,0.00,Wunderground v.1.15,2013-06-27 18:50:00,
2013-06-27 14:51:00,85.9,75.8,29.83,SW,232,1.0,2.0,72,0.00,,,0.00,Wunderground v.1.15,2013-06-27 18:51:00,
2013-06-27 14:52:00,85.9,75.8,29.83,NNE,29,1.0,2.0,72,0.00,,,0.00,Wunderground v.1.15,2013-06-27 18:52:00,
2013-06-27 14:56:00,86.3,76.6,29.83,WNW,300,1.0,2.0,73,0.00,,,0.00,Wunderground v.1.15,2013-06-27 18:56:00,
2013-06-27 14:57:00,86.4,76.7,29.83,WNW,293,1.0,2.0,73,0.00,,,0.00,Wunderground v.1.15,2013-06-27 18:57:00,
2013-06-27 14:58:00,86.5,76.8,29.83,WNW,293,1.0,2.0,73,0.00,,,0.00,Wunderground v.1.15,2013-06-27 18:58:00,
2013-06-27 14:59:00,86.3,76.2,29.83,WSW,242,1.0,2.0,72,0.00,,,0.00,Wunderground v.1.15,2013-06-27 18:59:00,
2013-06-27 15:02:00,86.0,75.9,29.83,WSW,254,1.0,1.0,72,0.00,,,0.00,Wunderground v.1.15,2013-06-27 19:02:00,
2013-06-27 15:03:00,86.0,76.3,29.83,WSW,254,1.0,1.0,73,0.00,,,0.00,Wunderground v.1.15,2013-06-27 19:03:00,
2013-06-27 15:04:00,86.0,76.3,29.83,NNW,336,1.0,1.0,73,0.00,,,0.00,Wunderground v.1.15,2013-06-27 19:04:00,
2013-06-27 15:05:00,73.0,69.9,29.78,WSW,244,0.0,2.0,90,0.00,,,0.00,Wunderground v.1.15,2013-06-27 19:05:00,
2013-06-27 15:09:00,85.9,76.2,29.83,NE,38,0.0,1.0,73,0.00,,,0.00,Wunderground v.1.15,2013-06-27 19:09:00,
2013-06-27 15:10:00,85.8,76.5,29.83,NE,38,0.0,0.0,74,0.00,,,0.00,Wunderground v.1.15,2013-06-27 19:10:00,
2013-06-27 15:11:00,85.8,76.5,29.83,NE,38,0.0,0.0,74,0.00,,,0.00,Wunderground v.1.15,2013-06-27 19:11:00,
2013-06-27 15:12:00,85.9,76.6,29.83,NNE,19,0.0,0.0,74,0.00,,,0.00,Wunderground v.1.15,2013-06-27 19:12:00,
2013-06-27 15:13:00,86.0,77.1,29.83,NNE,19,0.0,1.0,75,0.00,,,0.00,Wunderground v.1.15,2013-06-27 19:13:00,
2013-06-27 15:14:00,86.0,76.7,29.83,NNE,19,0.0,1.0,74,0.00,,,0.00,Wunderground v.1.15,2013-06-27 19:14:00,
2013-06-27 15:16:00,72.9,69.8,29.78,WSW,244,0.0,0.0,90,0.00,,,0.00,Wunderground v.1.15,2013-06-27 19:16:00,
2013-06-27 15:17:00,86.3,76.6,29.83,NNW,332,1.0,2.0,73,0.00,,,0.00,Wunderground v.1.15,2013-06-27 19:17:00,
2013-06-27 15:18:00,86.4,77.1,29.83,WNW,300,1.0,2.0,74,0.00,,,0.00,Wunderground v.1.15,2013-06-27 19:18:00,
2013-06-27 15:19:00,86.5,76.4,29.83,SE,133,1.0,2.0,72,0.00,,,0.00,Wunderground v.1.15,2013-06-27 19:19:00,
2013-06-27 15:22:00,86.8,76.7,29.83,WSW,243,1.0,3.0,72,0.00,,,0.00,Wunderground v.1.15,2013-06-27 19:22:00,
2013-06-27 15:25:00,87.1,77.0,29.83,SW,218,1.0,3.0,72,0.00,,,0.00,Wunderground v.1.15,2013-06-27 19:25:00,
2013-06-27 15:26:00,72.7,69.6,29.78,WSW,239,0.0,0.0,90,0.00,,,0.00,Wunderground v.1.15,2013-06-27 19:26:00,
2013-06-27 15:27:00,87.2,77.1,29.83,WSW,256,1.0,3.0,72,0.00,,,0.00,Wunderground v.1.15,2013-06-27 19:27:00,
2013-06-27 15:28:00,87.2,77.5,29.83,West,270,1.0,3.0,73,0.00,,,0.00,Wunderground v.1.15,2013-06-27 19:28:00,
2013-06-27 15:29:00,87.3,78.0,29.83,West,270,1.0,3.0,74,0.00,,,0.00,Wunderground v.1.15,2013-06-27 19:29:00,
2013-06-27 15:31:00,87.4,76.8,29.83,WSW,248,1.0,3.0,71,0.00,,,0.00,Wunderground v.1.15,2013-06-27 19:31:00,
2013-06-27 15:33:00,87.5,76.5,29.83,WSW,248,0.0,3.0,70,0.00,,,0.00,Wunderground v.1.15,2013-06-27 19:33:00,
2013-06-27 15:34:00,87.5,76.9,29.83,WSW,252,1.0,3.0,71,0.00,,,0.00,Wunderground v.1.15,2013-06-27 19:34:00,
2013-06-27 15:35:00,87.6,77.0,29.83,West,261,1.0,3.0,71,0.00,,,0.00,Wunderground v.1.15,2013-06-27 19:35:00,
2013-06-27 15:36:00,87.6,76.6,29.83,SE,126,1.0,3.0,70,0.00,,,0.00,Wunderground v.1.15,2013-06-27 19:36:00,
2013-06-27 15:38:00,87.6,75.7,29.83,NNW,333,1.0,3.0,68,0.00,,,0.00,Wunderground v.1.15,2013-06-27 19:38:00,
2013-06-27 15:40:00,87.4,75.1,29.82,WSW,241,1.0,7.0,67,0.00,,,0.00,Wunderground v.1.15,2013-06-27 19:40:00,
2013-06-27 15:42:00,87.3,75.4,29.82,WSW,247,1.0,7.0,68,0.00,,,0.00,Wunderground v.1.15,2013-06-27 19:42:00,
2013-06-27 15:43:00,87.2,74.9,29.82,NNW,332,2.0,7.0,67,0.00,,,0.00,Wunderground v.1.15,2013-06-27 19:43:00,
2013-06-27 15:44:00,87.2,75.3,29.82,WNW,303,2.0,7.0,68,0.00,,,0.00,Wunderground v.1.15,2013-06-27 19:44:00,
2013-06-27 15:46:00,87.1,76.1,29.82,WSW,257,2.0,7.0,70,0.00,,,0.00,Wunderground v.1.15,2013-06-27 19:46:00,
2013-06-27 15:49:00,87.3,76.3,29.83,NNW,342,1.0,7.0,70,0.00,,,0.00,Wunderground v.1.15,2013-06-27 19:49:00,
2013-06-27 15:50:00,87.5,76.1,29.83,North,355,1.0,1.0,69,0.00,,,0.00,Wunderground v.1.15,2013-06-27 19:50:00,
2013-06-27 15:51:00,87.6,76.2,29.83,North,355,1.0,1.0,69,0.00,,,0.00,Wunderground v.1.15,2013-06-27 19:51:00,
2013-06-27 15:53:00,87.8,75.9,29.82,NNE,17,1.0,1.0,68,0.00,,,0.00,Wunderground v.1.15,2013-06-27 19:53:00,
2013-06-27 15:56:00,87.6,75.3,29.82,West,278,1.0,3.0,67,0.00,,,0.00,Wunderground v.1.15,2013-06-27 19:56:00,
2013-06-27 15:57:00,87.4,75.5,29.82,WNW,284,1.0,3.0,68,0.00,,,0.00,Wunderground v.1.15,2013-06-27 19:57:00,
2013-06-27 15:58:00,87.2,75.3,29.83,WNW,284,1.0,3.0,68,0.00,,,0.00,Wunderground v.1.15,2013-06-27 19:58:00,
2013-06-27 15:59:00,87.1,74.8,29.82,West,263,1.0,3.0,67,0.00,,,0.00,Wunderground v.1.15,2013-06-27 19:59:00,
2013-06-27 16:00:00,86.9,74.6,29.83,WSW,253,1.0,3.0,67,0.00,,,0.00,Wunderground v.1.15,2013-06-27 20:00:00,
2013-06-27 16:01:00,86.6,74.8,29.83,West,267,1.0,3.0,68,0.00,,,0.00,Wunderground v.1.15,2013-06-27 20:01:00,
2013-06-27 16:02:00,86.5,75.5,29.83,East,89,1.0,3.0,70,0.00,,,0.00,Wunderground v.1.15,2013-06-27 20:02:00,
2013-06-27 16:05:00,86.1,75.2,29.83,West,260,1.0,3.0,70,0.00,,,0.00,Wunderground v.1.15,2013-06-27 20:05:00,
2013-06-27 16:07:00,85.7,74.8,29.83,WSW,241,1.0,3.0,70,0.00,,,0.00,Wunderground v.1.15,2013-06-27 20:07:00,
2013-06-27 16:08:00,85.5,74.6,29.83,NNW,347,1.0,3.0,70,0.00,,,0.00,Wunderground v.1.15,2013-06-27 20:08:00,
2013-06-27 16:09:00,85.4,74.5,29.83,NE,36,1.0,4.0,70,0.00,,,0.00,Wunderground v.1.15,2013-06-27 20:09:00,
2013-06-27 16:10:00,85.2,73.9,29.83,West,275,1.0,1.0,69,0.00,,,0.00,Wunderground v.1.15,2013-06-27 20:10:00,
2013-06-27 16:13:00,84.7,74.3,29.83,West,269,1.0,1.0,71,0.00,,,0.00,Wunderground v.1.15,2013-06-27 20:13:00,
2013-06-27 16:15:00,84.4,74.8,29.83,West,269,1.0,1.0,73,0.00,,,0.00,Wunderground v.1.15,2013-06-27 20:15:00,
2013-06-27 16:16:00,84.3,74.3,29.83,West,269,1.0,1.0,72,0.00,,,0.00,Wunderground v.1.15,2013-06-27 20:16:00,
2013-06-27 16:18:00,84.2,74.6,29.83,West,269,0.0,1.0,73,0.00,,,0.00,Wunderground v.1.15,2013-06-27 20:18:00,
2013-06-27 16:19:00,84.1,73.7,29.83,West,269,0.0,1.0,71,0.00,,,0.00,Wunderground v.1.15,2013-06-27 20:19:00,
2013-06-27 16:21:00,84.0,74.4,29.82,WSW,253,0.0,2.0,73,0.00,,,0.00,Wunderground v.1.15,2013-06-27 20:21:00,
2013-06-27 16:22:00,83.9,74.3,29.82,NE,42,0.0,2.0,73,0.00,,,0.00,Wunderground v.1.15,2013-06-27 20:22:00,
2013-06-27 16:23:00,83.8,74.2,29.82,NNE,17,0.0,2.0,73,0.00,,,0.00,Wunderground v.1.15,2013-06-27 20:23:00,
2013-06-27 16:25:00,83.8,74.2,29.83,NE,40,0.0,2.0,73,0.00,,,0.00,Wunderground v.1.15,2013-06-27 20:25:00,
2013-06-27 16:26:00,83.8,74.2,29.83,NE,40,0.0,2.0,73,0.00,,,0.00,Wunderground v.1.15,2013-06-27 20:26:00,
2013-06-27 16:27:00,83.8,74.2,29.83,NE,40,0.0,2.0,73,0.00,,,0.00,Wunderground v.1.15,2013-06-27 20:27:00,
2013-06-27 16:28:00,83.8,74.6,29.83,NE,40,0.0,2.0,74,0.00,,,0.00,Wunderground v.1.15,2013-06-27 20:28:00,
2013-06-27 16:34:00,83.7,74.9,29.82,NE,40,0.0,0.0,75,0.00,,,0.00,Wunderground v.1.15,2013-06-27 20:34:00,
2013-06-27 16:36:00,83.7,74.9,29.82,NE,40,0.0,0.0,75,0.00,,,0.00,Wunderground v.1.15,2013-06-27 20:36:00,
2013-06-27 16:37:00,83.7,74.5,29.82,North,5,0.0,0.0,74,0.00,,,0.00,Wunderground v.1.15,2013-06-27 20:37:00,
2013-06-27 16:58:00,82.8,74.8,29.82,WSW,246,0.0,1.0,77,0.00,,,0.00,Wunderground v.1.15,2013-06-27 20:58:00,
2013-06-27 18:59:00,84.3,74.3,29.80,WSW,240,0.0,0.0,72,0.00,,,0.00,Wunderground v.1.15,2013-06-27 22:59:00,
2013-06-27 19:11:00,83.5,73.5,29.80,WNW,287,1.0,1.0,72,0.00,,,0.00,Wunderground v.1.15,2013-06-27 23:11:00,
2013-06-27 19:19:00,83.2,73.6,29.81,WNW,286,1.0,4.0,73,0.00,,,0.00,Wunderground v.1.15,2013-06-27 23:19:00,
2013-06-27 20:01:00,82.9,74.6,29.81,WNW,286,0.0,0.0,76,0.00,,,0.00,Wunderground v.1.15,2013-06-28 00:01:00,
2013-06-27 20:06:00,82.8,74.8,29.80,WNW,284,0.0,0.0,77,0.00,,,0.00,Wunderground v.1.15,2013-06-28 00:06:00,
2013-06-27 20:13:00,82.5,74.2,29.81,West,274,0.0,2.0,76,0.00,,,0.00,Wunderground v.1.15,2013-06-28 00:13:00,
2013-06-27 22:16:00,77.4,72.9,29.79,WNW,284,0.0,0.0,86,0.00,,,0.00,Wunderground v.1.15,2013-06-28 02:16:00,
2013-06-27 22:22:00,77.2,72.7,29.79,WNW,284,0.0,0.0,86,0.00,,,0.00,Wunderground v.1.15,2013-06-28 02:22:00,
2013-06-27 22:29:00,77.1,72.6,29.79,WNW,284,0.0,0.0,86,0.00,,,0.00,Wunderground v.1.15,2013-06-28 02:29:00,
2013-06-27 22:36:00,76.8,72.3,29.79,West,261,0.0,0.0,86,0.00,,,0.00,Wunderground v.1.15,2013-06-28 02:36:00,
2013-06-27 22:41:00,76.7,72.2,29.79,West,261,0.0,0.0,86,0.00,,,0.00,Wunderground v.1.15,2013-06-28 02:41:00,
2013-06-27 22:47:00,76.6,72.4,29.79,West,261,0.0,0.0,87,0.00,,,0.00,Wunderground v.1.15,2013-06-28 02:47:00,
2013-06-27 22:56:00,76.4,72.2,29.79,West,261,0.0,0.0,87,0.00,,,0.00,Wunderground v.1.15,2013-06-28 02:56:00,
2013-06-27 23:04:00,76.3,72.1,29.79,West,261,0.0,0.0,87,0.00,,,0.00,Wunderground v.1.15,2013-06-28 03:04:00,